GEFSNGP_con_prob3kmehi_054.txt.gz
EHI
0 0 0 0 0 0 0 0 0 0 0 0 0 0 0 0 0 0 0 0 0 0 0 0 0 0 0 0 0 0 0 0 0 0 0 0 0 0 0 0 0 0 0 0
0 0 0 0 0 0 0 0 0 0 0 0 0 0 0 0 0 0 0 0 0 0 0 0 0 0 0 0 0 0 0 0 0 0 0 0 0 0 0 0 0 0 0 0
0 0 0 0 0 0 0 0 0 0 0 0 0 0 0 0 0 0 0 0 0 0 0 0 0 0 0 0 0 0 0 0 0 0 0 0 0 0 0 0 0 0 0 0
0 0 0 0 0 0 0 0 0 0 0 0 0 0 0 0 0 0 0 0 0 0 0 0 0 0 0 0 0 0 0 0 0 0 0 0 0 0 0 0 0 0 0 0
0 0 0 0 0 0 0 0 0 0 0 0 0 0 0 0 0 0 0 0 0 0 0 0 0 0 0 0 0 0 0 0 0 0 0 0 0 0 0 0 0 0 0 0
0 0 0 0 0 0 0 0 0 0 0 0 0 0 0 0 0 0 0 0 0 0 0 0 0 0 0 0 0 0 0 0 0 0 0 0 0 0 0 0 0 0 0 0
0 0 0 0 0 0 0 0 0 0 0 0 0 0 0 0 0 0 0 0 0 0 0 0 0 0 0 0 0 0 0 0 0 0 0 0 0 0 0 0 0 0 0 0
0 0 0 0 0 0 0 0 0 0 0 0 0 0 0 0 0 0 0 0 0 0 0 0 0 0 0 0 0 0 0 0 0 0 0 0 0 0 0 0 0 0 0 0
0 0 0 0 0 0 0 0 0 0 0 0 0 0 0 0 0 0 0 0 0 0 0 0 0 0 0 0 0 0 0 0 0 0 0 0 0 0 0 0 0 0 0 0
0 0 0 0 0 0 0 0 0 0 0 0 0 0 0 0 0 0 0 0 0 0 0 0 0 0 0 0 0 0 0 0 0 0 0 0 0 0 0 0 0 0 0 0
0 0 0 0 0 0 0 0 0 0 0 0 0 0 0 0 0 0 0 0 0 0 0 0 0 0 0 0 0 0 0 0 0 0 0 0 0 0 0 0 0 0 0 0
0 0 0 0 0 0 0 0 0 0 0 0 0 0 0 0 0 0 0 0 0 0 0 0 0 0 0 0 0 0 0 0 0 0 0 0 0 0 0 0 0 0 0 0
0 0 0 0 0 0 0 0 0 0 0 0 0 0 0 0 0 0 0 0 0 0 0 0 0 0 0 0 0 0 0 0 0 0 0 0 0 0 0 0 0 0 0 0
0 0 0 0 0 0 0 0 0 0 0 0 0 0 0 0 0 0 0 0 0 0 0 0 0 0 0 0 0 0 0 0 0 0 0 0 0 0 0 0 0 0 0 0
0 0 0 0 0 0 0 0 0 0 0 0 0 0 0 0 0 0 0 0 0 0 0 0 0 0 0 0 0 0 0 0 0 0 0 0 0 0 0 0 0 0 0 0
0 0 0 0 0 0 0 0 0 0 0 0 0 0 0 0 0 0 0 0 0 0 0 0 0 0 0 0 0 0 0 0 0 0 0 0 0 0 0 0 0 0 0 0
0 0 0 0 0 0 0 0 0 0 0 0 0 0 0 0 0 0 0 0 0 0 0 0 0 0 0 0 0 0 0 0 0 0 0 0 0 0 0 0 0 0 0 0
0 0 0 0 0 0 0 0 0 0 0 0 0 0 0 0 0 0 0 0 0 0 0 0 0 0 0 0 0 0 0 0 0 0 0 0 0 0 0 0 0 0 0 0
0 0 0 0 0 0 0 0 0 0 0 0 0 0 0 0 0 0 0 0 0 0 0 0 0 0 0 0 0 0 0 0 0 0 0 0 0 0 0 0 0 0 0 0
0 0 0 0 0 0 0 0 0 0 0 0 0 0 0 0 0 0 0 0 0 0 0 0 0 0 0 0 0 0 0 0 0 0 0 0 0 0 0 0 0 0 0 0
0 0 0 0 0 0 0 0 0 0 0 0 0 0 0 0 0 0 0 0 0 0 0 0 0 0 0 0 0 0 0 0 0 0 0 0 0 0 0 0 0 0 0 0
0 0 0 0 0 0 0 0 0 0 0 0 0 0 0 0 0 0 0 0 0 0 0 0 0 0 0 0 0 0 0 0 0 0 0 0 0 0 0 0 0 0 0 0
0 0 0 0 0 0 0 0 0 0 0 0 0 0 0 0 0 0 0 0 0 0 0 0 0 0 0 0 0 0 0 0 0 0 0 0 0 0 0 0 0 0 0 0
0 0 0 0 0 0 0 0 0 0 0 0 0 0 0 0 0 0 0 0 0 0 0 0 0 0 0 0 0 0 0 0 0 0 0 0 0 0 0 0 0 0 0 0
0 0 0 0 0 0 0 0 0 0 0 0 0 0 0 0 0 0 0 0 0 0 0 0 0 0 0 0 0 0 0 0 0 0 0 0 0 0 0 0 0 0 0 0
0 0 0 0 0 0 0 0 0 0 0 0 0 0 0 0 0 0 0 0 0 0 0 0 0 0 0 0 0 0 0 0 0 0 0 0 0 0 0 0 0 0 0 0
0 0 0 0 0 0 0 0 0 0 0 0 0 0 0 0 0 0 0 0 0 0 0 0 0 0 0 0 0 0 0 0 0 0 0 0 0 0 0 0 0 0 0 0

GEFSNGP_con_prob3kmehi_060.txt.gz
EHI
0 0 0 0 0 0 0 0 0 0 0 0 0 0 0 0 0 0 0 0 0 0 0 0 0 0 0 0 0 0 0 0 0 0 0 0 0 0 0 0 0 0 0 0
0 0 0 0 0 0 0 0 0 0 0 0 0 0 0 0 0 0 0 0 0 0 0 0 0 0 0 0 0 0 0 0 0 0 0 0 0 0 0 0 0 0 0 0
0 0 0 0 0 0 0 0 0 0 0 0 0 0 0 0 0 0 0 0 0 0 0 0 0 0 0 0 0 0 0 0 0 0 0 0 0 0 0 0 0 0 0 0
0 0 0 0 0 0 0 0 0 0 0 0 0 0 0 0 0 0 0 0 0 0 0 0 0 0 0 0 0 0 0 0 0 0 0 0 0 0 0 0 0 0 0 0
0 0 0 0 0 0 0 0 0 0 0 0 0 0 0 0 0 0 0 0 0 0 0 0 0 0 0 0 0 0 0 0 0 0 0 0 0 0 0 0 0 0 0 0
0 0 0 0 0 0 0 0 0 0 0 0 0 0 0 0 0 0 0 0 0 0 0 0 0 0 0 0 0 0 0 0 0 0 0 0 0 0 0 0 0 0 0 0
0 0 0 0 0 0 0 0 0 0 0 0 0 0 0 0 0 0 0 0 0 0 0 0 0 0 0 0 0 0 0 0 0 0 0 0 0 0 0 0 0 0 0 0
0 0 0 0 0 0 0 0 0 0 0 0 0 0 0 0 0 0 0 0 0 0 0 0 0 0 0 0 0 0 0 0 0 0 0 0 0 0 0 0 0 0 0 0
0 0 0 0 0 0 0 0 0 0 0 0 0 0 0 0 0 0 0 0 0 0 0 0 0 0 0 0 0 0 0 0 0 0 0 0 0 0 0 0 0 0 0 0
0 0 0 0 0 0 0 0 0 0 0 0 0 0 0 0 0 0 0 0 0 0 0 1 1 0 0 0 0 0 0 0 0 0 0 0 0 0 0 0 0 0 0 0
0 0 0 0 0 0 0 0 0 0 0 0 0 0 0 0 0 0 0 0 0 0 0 1 1 0 0 0 0 0 0 0 0 0 0 0 0 0 0 0 0 0 0 0
0 0 0 0 0 0 0 0 0 0 0 0 0 0 0 0 0 0 0 0 0 0 0 0 0 0 0 0 0 0 0 0 0 0 0 0 0 0 0 0 0 0 0 0
0 0 0 0 0 0 0 0 0 0 0 0 0 0 0 0 0 0 0 0 0 0 0 0 0 0 0 0 0 0 0 0 0 0 0 0 0 0 0 0 0 0 0 0
0 0 0 0 0 0 0 0 0 0 0 0 0 0 0 0 0 0 0 0 0 0 0 0 0 0 0 0 1 0 0 0 0 0 0 0 0 0 0 0 0 0 0 0
0 0 0 0 0 0 0 0 0 0 0 0 0 0 0 0 0 0 0 0 0 0 0 0 0 0 0 0 0 0 0 0 0 0 0 0 0 0 0 0 0 0 0 0
0 0 0 0 0 0 0 0 0 0 0 0 0 0 0 0 0 0 0 0 0 0 0 0 0 0 0 0 0 0 0 0 0 0 0 0 0 0 0 0 0 0 0 0
0 0 0 0 0 0 0 0 0 0 0 0 0 0 0 0 0 0 0 0 0 0 0 0 0 0 0 0 0 0 0 0 0 0 0 0 0 0 0 0 0 0 0 0
0 0 0 0 0 0 0 0 0 0 0 0 0 0 0 0 0 0 0 0 0 0 0 0 0 0 0 0 0 0 0 0 0 0 0 0 0 0 0 0 0 0 0 0
0 0 0 0 0 0 0 0 0 0 0 0 0 0 0 0 0 0 0 0 0 0 0 0 0 0 0 0 0 0 0 0 0 0 0 0 0 0 0 0 0 0 0 0
0 0 0 0 0 0 0 0 0 0 0 0 0 0 0 0 0 0 0 0 0 0 0 0 0 0 0 0 0 0 0 0 0 0 0 0 0 0 0 0 0 0 0 0
0 0 0 0 0 0 0 0 0 0 0 0 0 0 0 0 0 0 0 0 0 0 0 0 0 0 0 0 0 0 0 0 0 0 0 0 0 0 0 0 0 0 0 0
0 0 0 0 0 0 0 0 0 0 0 0 0 0 0 0 0 0 0 0 0 0 0 0 0 0 0 0 0 0 0 0 0 0 0 0 0 0 0 0 0 0 0 0
0 0 0 0 0 0 0 0 0 0 0 0 0 0 0 0 0 0 0 0 0 0 0 0 0 0 0 0 0 0 0 0 0 0 0 0 0 0 0 0 0 0 0 0
0 0 0 0 0 0 0 0 0 0 0 0 0 0 0 0 0 0 0 0 0 0 0 0 0 0 0 0 0 0 0 0 0 0 0 0 0 0 0 0 0 0 0 0
0 0 0 0 0 0 0 0 0 0 0 0 0 0 0 0 0 0 0 0 0 0 0 0 0 0 0 0 0 0 0 0 0 0 0 0 0 0 0 0 0 0 0 0
0 0 0 0 0 0 0 0 0 0 0 0 0 0 0 0 0 0 0 0 0 0 0 0 0 0 0 0 0 0 0 0 0 0 0 0 0 0 0 0 0 0 0 0
0 0 0 0 0 0 0 0 0 0 0 0 0 0 0 0 0 0 0 0 0 0 0 0 0 0 0 0 0 0 0 0 0 0 0 0 0 0 0 0 0 0 0 0

GEFSNGP_con_prob3kmehi_066.txt.gz
EHI
0 0 0 0 0 0 0 0 0 0 0 0 0 0 0 0 1 2 6 13 26 39 43 34 21 10 4 1 0 0 0 0 1 2 2 2 1 1 0 0 0 0 0 0
0 0 0 0 0 0 0 0 0 0 0 0 0 0 0 0 0 2 5 12 24 38 44 40 27 14 6 4 2 1 0 0 0 1 1 1 1 1 0 0 0 0 0 0
0 0 0 0 0 0 0 0 0 0 0 0 0 0 0 0 0 1 3 8 19 32 43 43 32 18 11 9 7 3 1 0 1 1 1 1 2 2 1 1 0 0 0 0
0 0 0 0 0 0 0 1 1 0 1 2 1 0 0 0 0 0 1 4 11 21 31 35 29 20 15 12 9 6 2 0 1 2 2 2 3 3 3 2 1 0 0 0
0 0 0 0 0 0 1 2 3 2 3 4 3 1 0 0 1 1 1 1 4 9 16 25 28 25 20 15 11 7 2 0 1 2 3 3 4 5 4 2 1 0 0 0
0 0 0 0 0 0 1 3 4 3 3 3 3 1 0 0 1 2 3 3 4 5 13 28 40 39 30 20 15 10 4 2 3 3 3 4 6 7 5 2 1 0 0 1
0 0 0 0 0 2 4 4 3 2 1 1 2 2 1 2 3 4 6 8 11 16 26 44 57 55 44 33 26 19 12 8 7 5 4 5 10 12 8 4 1 0 1 2
1 2 3 2 2 5 7 5 2 0 0 0 1 1 3 6 9 11 11 13 19 31 46 59 68 66 58 48 40 31 23 19 17 13 9 8 12 13 10 5 1 0 1 2
1 3 6 5 3 5 5 3 1 0 0 0 1 4 8 15 20 22 21 20 26 40 57 66 70 69 63 57 49 38 31 28 26 22 17 13 11 10 7 4 1 0 0 1
2 4 6 5 3 2 2 1 0 0 1 2 5 9 16 24 30 33 32 31 34 46 60 66 66 64 61 57 48 38 32 29 26 22 18 16 12 7 4 3 2 1 0 0
4 5 4 3 2 1 1 1 1 1 2 4 7 10 15 23 28 31 33 33 36 45 55 59 59 57 55 51 43 34 29 25 19 14 12 13 11 6 4 3 2 1 0 0
5 5 3 1 1 1 1 1 1 1 3 4 5 6 9 12 15 18 20 22 25 30 37 42 43 45 43 41 37 32 28 21 13 7 6 7 6 4 3 2 1 1 0 0
6 4 1 0 0 0 0 0 0 1 1 2 3 3 4 4 5 6 7 8 9 12 15 19 22 26 28 28 31 31 27 18 8 4 3 2 2 2 1 1 0 0 0 0
6 3 0 0 0 0 0 0 0 0 0 1 1 1 1 1 1 1 1 1 1 2 4 5 8 10 13 17 21 23 20 11 4 2 1 1 0 1 1 1 1 1 1 1
2 1 0 0 0 0 0 0 0 0 0 0 0 0 0 0 0 0 0 0 0 0 1 1 2 3 4 7 10 10 8 4 1 1 0 0 0 0 0 0 0 1 2 1
1 0 0 0 0 0 0 0 0 0 0 0 0 0 0 0 0 0 0 0 0 0 0 0 0 0 0 2 3 3 1 1 0 0 0 0 0 0 0 0 0 0 1 1
1 0 0 0 0 0 0 0 0 0 0 0 0 0 0 0 0 0 0 0 0 0 0 0 0 0 0 0 1 1 0 0 0 0 0 0 0 0 0 0 0 0 0 0
1 0 0 0 0 0 0 0 0 0 0 0 0 0 0 0 0 0 0 0 0 0 0 0 0 0 0 0 0 0 0 0 0 0 0 0 0 0 0 0 0 0 0 0
0 0 0 0 0 0 0 0 0 0 0 0 0 0 0 0 0 0 0 0 0 0 0 0 0 0 0 0 0 0 0 0 0 0 0 0 0 0 0 0 0 0 0 0
0 0 0 0 0 0 0 0 0 0 0 0 0 0 0 0 0 0 0 0 0 0 0 0 0 0 0 0 0 0 0 0 0 0 0 0 0 0 0 0 0 0 0 0
0 0 0 0 0 0 0 0 0 0 0 0 0 0 0 0 0 0 0 0 0 0 0 0 0 0 0 0 0 0 0 0 0 0 0 0 0 0 0 0 0 0 0 0
0 0 0 0 0 0 0 0 0 0 0 0 0 0 0 0 0 0 0 0 0 0 0 0 0 0 0 0 0 0 0 0 0 0 0 0 0 0 0 0 0 0 0 0
0 0 0 0 0 0 0 0 0 0 0 0 0 0 0 0 0 0 0 0 0 0 0 0 0 0 0 0 0 0 0 0 0 0 0 0 0 0 0 0 0 0 0 0
0 0 0 0 0 0 0 0 0 0 0 0 0 0 0 0 0 0 0 0 0 0 0 0 0 0 0 0 0 0 0 0 0 0 0 0 0 0 0 0 0 0 0 0
0 0 0 0 0 0 0 0 0 0 0 0 0 0 0 0 0 0 0 0 0 0 0 0 0 0 0 0 0 0 0 0 0 0 0 0 0 0 0 0 0 0 0 0
0 0 0 0 0 0 0 0 0 0 0 0 0 0 0 0 0 0 0 0 0 0 0 0 0 0 0 0 0 0 0 0 0 0 0 0 0 0 0 0 0 0 0 0
0 0 0 0 0 0 0 0 0 0 0 0 0 0 0 0 0 0 0 0 0 0 0 0 0 0 0 0 0 0 0 0 0 0 0 0 0 0 0 0 0 0 0 0

GEFSNGP_con_prob3kmehi_072.txt.gz
EHI
0 0 0 0 0 0 0 0 0 0 0 0 0 0 0 0 0 0 0 0 1 1 1 2 3 3 3 2 1 0 0 0 0 0 0 0 0 0 0 0 0 0 0 0
0 0 0 0 0 0 0 0 0 0 0 0 0 0 0 0 0 0 0 0 0 0 1 2 3 2 1 1 0 0 0 0 0 0 0 0 0 0 0 0 0 0 0 0
0 0 0 0 0 0 0 0 0 0 0 0 0 0 0 1 0 0 0 0 0 0 1 2 2 1 0 0 0 0 0 0 0 0 0 0 0 0 0 0 0 0 0 0
0 0 0 0 0 0 0 0 0 1 0 0 0 0 0 0 0 0 0 0 0 0 0 1 1 0 0 0 0 0 0 0 0 0 0 0 0 0 0 0 0 0 0 0
0 0 0 0 0 0 0 0 0 0 0 0 0 0 0 0 0 0 0 0 0 0 0 0 0 0 0 0 0 0 0 0 0 0 0 0 0 0 0 0 0 0 0 0
0 0 0 0 0 0 0 1 0 0 0 0 0 0 0 0 1 0 0 0 0 0 0 0 0 0 0 0 0 0 0 0 0 0 0 0 0 0 0 0 0 0 0 0
0 0 0 0 0 0 0 0 0 0 0 0 0 0 0 0 0 0 0 0 0 0 0 0 0 0 0 0 0 0 0 0 0 0 0 0 0 0 0 0 0 0 0 0
0 0 0 0 0 0 0 0 0 0 0 0 0 0 0 0 0 0 0 0 0 0 0 0 0 0 0 0 0 0 0 0 0 0 0 0 0 0 0 0 0 0 0 0
0 0 0 0 0 0 0 0 0 0 0 0 0 0 0 0 0 0 0 1 0 0 0 0 0 0 0 0 0 0 0 0 0 0 0 0 0 0 0 0 0 0 0 0
0 0 0 0 0 0 0 0 0 0 0 0 0 0 0 0 0 0 0 0 0 0 0 0 0 0 0 0 0 0 0 0 0 0 0 0 0 0 0 0 0 0 0 0
0 0 0 0 0 0 0 0 0 0 0 0 0 0 0 0 0 0 0 0 0 0 0 0 0 0 0 0 0 0 0 0 0 0 0 0 0 0 0 0 0 0 0 0
0 0 0 0 0 0 0 0 0 0 0 0 0 0 0 0 0 0 0 0 0 0 0 0 0 0 0 0 0 0 0 0 0 0 0 0 0 0 0 0 0 0 0 0
0 0 0 0 0 0 0 0 0 0 0 0 0 0 0 0 0 0 0 0 0 0 0 0 0 0 0 0 0 0 0 0 0 0 0 0 0 0 0 0 0 0 0 0
0 0 0 0 0 0 0 0 0 0 0 0 0 0 0 0 0 0 0 0 0 0 0 0 0 0 0 0 0 0 0 0 0 0 0 0 0 0 0 0 0 0 0 0
0 0 0 0 0 0 0 0 0 0 0 0 0 0 0 0 0 0 0 0 0 0 0 0 0 0 0 0 0 0 0 0 0 0 0 0 0 0 0 0 0 0 0 0
0 0 0 0 0 0 0 0 0 0 0 0 0 0 0 0 0 0 0 0 0 0 0 0 0 0 0 0 0 0 0 0 0 0 0 0 0 0 0 0 0 0 0 0
0 0 0 0 0 0 0 0 0 0 0 0 0 0 0 0 0 0 0 0 0 0 0 0 0 0 0 0 0 0 0 0 0 0 0 0 0 0 0 0 0 0 0 0
0 0 0 0 0 0 0 0 0 0 0 0 0 0 0 0 0 0 0 0 0 0 0 0 0 0 0 0 0 0 0 0 0 0 0 0 0 0 0 0 0 0 0 0
0 0 0 0 0 0 0 0 0 0 0 0 0 0 0 0 0 0 0 0 0 0 0 0 0 0 0 0 0 0 0 0 0 0 0 0 0 0 0 0 0 0 0 0
0 0 0 0 0 0 0 0 0 0 0 0 0 0 0 0 0 0 0 0 0 0 0 0 0 0 0 0 0 0 0 0 0 0 0 0 0 0 0 0 0 0 0 0
0 0 0 0 0 0 0 0 0 0 0 0 0 0 0 0 0 0 0 0 0 0 0 0 0 0 0 0 0 0 0 0 0 0 0 0 0 0 0 0 0 0 0 0
0 0 0 0 0 0 0 0 0 0 0 0 0 0 0 0 0 0 0 0 0 0 0 0 0 0 0 0 0 0 0 0 0 0 0 0 0 0 0 0 0 0 0 0
0 0 0 0 0 0 0 0 0 0 0 0 0 0 0 0 0 0 0 0 0 0 0 0 0 0 0 0 0 0 0 0 0 0 0 0 0 0 0 0 0 0 0 0
0 0 0 0 0 0 0 0 0 0 0 0 0 0 0 0 0 0 0 0 0 0 0 0 0 0 0 0 0 0 0 0 0 0 0 0 0 0 0 0 0 0 0 0
0 0 0 0 0 0 0 0 0 0 0 0 0 0 0 0 0 0 0 0 0 0 0 0 0 0 0 0 0 0 0 0 0 0 0 0 0 0 0 0 0 0 0 0
0 0 0 0 0 0 0 0 0 0 0 0 0 0 0 0 0 0 0 0 0 0 0 0 0 0 0 0 0 0 0 0 0 0 0 0 0 0 0 0 0 0 0 0
0 0 0 0 0 0 0 0 0 0 0 0 0 0 0 0 0 0 0 0 0 0 0 0 0 0 0 0 0 0 0 0 0 0 0 0 0 0 0 0 0 0 0 0

GEFSNGP_con_prob3kmehi_078.txt.gz
EHI
0 0 0 0 0 0 0 0 0 0 0 0 0 0 0 0 0 0 0 0 0 0 1 1 1 0 1 2 2 3 4 4 2 1 0 0 0 0 0 0 0 0 0 0
0 0 0 0 0 0 0 0 0 0 0 0 0 0 0 0 0 0 0 0 0 0 0 0 0 0 1 2 3 3 4 3 1 0 0 0 0 0 0 0 0 0 0 0
0 0 0 0 0 0 0 0 0 0 0 0 0 0 0 0 0 0 0 0 0 0 0 0 0 0 0 1 2 2 2 1 0 0 0 0 0 0 0 0 0 0 0 0
0 0 0 0 0 0 0 0 0 0 0 0 0 0 0 0 0 0 0 0 0 0 0 0 0 0 0 0 1 1 0 0 0 0 0 0 0 0 0 0 0 0 0 0
0 0 0 0 0 0 0 0 0 0 0 0 0 0 0 0 0 0 0 0 0 0 0 0 0 0 0 0 0 0 0 0 0 0 0 0 0 0 0 0 0 0 0 0
0 0 0 0 0 0 0 0 0 0 0 0 0 0 0 0 0 0 0 0 0 0 0 0 0 0 0 0 0 0 0 0 0 0 0 0 0 0 0 0 0 0 0 0
0 0 0 0 0 0 0 0 0 0 0 0 0 0 0 0 0 0 0 0 0 0 0 0 0 0 0 0 0 0 0 0 0 0 0 0 0 0 0 0 0 0 0 0
0 0 0 0 0 0 0 0 0 0 0 0 0 0 0 0 0 0 0 0 0 0 0 0 0 0 0 0 0 0 0 0 0 0 0 0 0 0 0 0 0 0 0 0
0 0 0 0 0 0 0 0 0 0 0 0 0 0 0 0 0 0 0 0 0 0 0 0 0 0 0 0 0 0 0 0 0 0 0 0 0 0 0 0 0 0 0 0
0 0 0 0 0 0 0 0 0 0 0 0 0 0 0 0 0 0 0 0 0 0 0 0 0 0 0 0 0 0 0 0 0 0 0 0 0 0 0 0 0 0 0 0
0 0 0 0 0 0 0 0 0 0 0 0 0 0 0 0 0 0 0 0 0 0 0 0 0 0 0 0 0 0 0 0 0 0 0 0 0 0 0 0 0 0 0 0
0 0 0 0 0 0 0 0 0 0 0 0 0 0 0 0 0 0 0 0 0 0 0 0 0 0 0 0 0 0 0 0 0 0 0 0 0 0 0 0 0 0 0 0
0 0 0 0 0 0 0 0 0 0 0 0 0 0 0 0 0 0 0 0 0 0 0 0 0 0 0 0 0 0 0 0 0 0 0 0 0 0 0 0 0 0 0 0
0 0 0 0 0 0 0 0 0 0 0 0 0 0 0 0 0 0 0 0 0 0 0 0 0 0 0 0 0 0 0 0 0 0 0 0 0 0 0 0 0 0 0 0
0 0 0 0 0 0 0 0 0 0 0 0 0 0 0 0 0 0 0 0 0 0 0 0 0 0 0 0 0 0 0 0 0 0 0 0 0 0 0 0 0 0 0 0
0 0 0 0 0 0 0 0 0 0 0 0 0 0 0 0 0 0 0 0 0 0 0 0 0 0 0 0 0 0 0 0 0 0 0 0 0 0 0 0 0 0 0 0
0 0 0 0 0 0 0 0 0 0 0 0 0 0 0 0 0 0 0 0 0 0 0 0 0 0 0 0 0 0 0 0 0 0 0 0 0 0 0 0 0 0 0 0
0 0 0 0 0 0 0 0 0 0 0 0 0 0 0 0 0 0 0 0 0 0 0 0 0 0 0 0 0 0 0 0 0 0 0 0 0 0 0 0 0 0 0 0
0 0 0 0 0 0 0 0 0 0 0 0 0 0 0 0 0 0 0 0 0 0 0 0 0 0 0 0 0 0 0 0 0 0 0 0 0 0 0 0 0 0 0 0
0 0 0 0 0 0 0 0 0 0 0 0 0 0 0 0 0 0 0 0 0 0 0 0 0 0 0 0 0 0 0 0 0 0 0 0 0 0 0 0 0 0 0 0
0 0 0 0 0 0 0 0 0 0 0 0 0 0 0 0 0 0 0 0 0 0 0 0 0 0 0 0 0 0 0 0 0 0 0 0 0 0 0 0 0 0 0 0
0 0 0 0 0 0 0 0 0 0 0 0 0 0 0 0 0 0 0 0 0 0 0 0 0 0 0 0 0 0 0 0 0 0 0 0 0 0 0 0 0 0 0 0
0 0 0 0 0 0 0 0 0 0 0 0 0 0 0 0 0 0 0 0 0 0 0 0 0 0 0 0 0 0 0 0 0 0 0 0 0 0 0 0 0 0 0 0
0 0 0 0 0 0 0 0 0 0 0 0 0 0 0 0 0 0 0 0 0 0 0 0 0 0 0 0 0 0 0 0 0 0 0 0 0 0 0 0 0 0 0 0
0 0 0 0 0 0 0 0 0 0 0 0 0 0 0 0 0 0 0 0 0 0 0 0 0 0 0 0 0 0 0 0 0 0 0 0 0 0 0 0 0 0 0 0
0 0 0 0 0 0 0 0 0 0 0 0 0 0 0 0 0 0 0 0 0 0 0 0 0 0 0 0 0 0 0 0 0 0 0 0 0 0 0 0 0 0 0 0
0 0 0 0 0 0 0 0 0 0 0 0 0 0 0 0 0 0 0 0 0 0 0 0 0 0 0 0 0 0 0 0 0 0 0 0 0 0 0 0 0 0 0 0

GEFSNGP_con_prob3kmehi_084.txt.gz
EHI
0 0 0 0 0 0 0 0 0 0 0 0 0 0 1 2 4 5 7 9 12 17 20 23 22 20 20 27 37 45 48 48 47 41 32 26 22 17 11 7 5 3 1 1
0 0 0 0 0 0 0 0 0 0 0 0 0 1 2 4 6 10 13 15 19 21 23 26 24 22 24 31 41 49 52 50 46 41 33 27 23 17 11 8 7 4 2 2
0 0 0 0 0 0 0 0 0 0 0 0 0 1 2 3 7 14 18 20 22 22 23 26 25 25 28 34 41 47 49 46 41 36 31 25 20 15 11 9 8 6 3 2
0 0 0 0 0 0 0 0 0 0 1 0 0 0 1 2 5 10 14 16 15 16 17 20 23 25 27 30 34 35 35 34 31 28 25 20 16 13 12 9 7 5 2 1
0 0 0 0 0 0 0 0 0 1 1 0 0 0 1 3 4 7 9 9 9 10 12 15 19 21 22 24 26 24 21 21 21 20 19 16 12 11 11 10 6 3 1 0
0 0 0 0 0 0 0 0 0 1 1 0 1 2 3 3 6 7 8 9 11 11 11 13 15 16 17 20 19 15 10 11 13 14 13 10 8 6 8 9 6 3 1 2
0 0 0 0 0 0 0 0 0 1 1 2 4 7 5 4 5 7 7 9 11 11 10 11 12 12 12 12 10 7 4 4 5 6 5 4 3 2 3 5 5 3 3 4
0 0 0 0 1 1 0 0 0 0 2 4 7 8 6 3 3 4 4 5 7 7 7 8 9 8 6 4 3 2 1 0 1 1 1 1 1 1 1 2 3 3 3 4
0 0 0 0 1 1 0 0 0 2 4 5 6 6 4 2 1 1 1 1 2 3 3 4 5 5 3 2 1 0 0 0 0 0 0 0 0 0 0 1 1 2 2 1
0 0 0 0 1 1 0 0 1 3 4 3 3 3 2 1 0 0 0 0 1 1 0 1 1 1 1 1 0 0 0 0 0 0 0 0 0 0 0 0 0 1 1 0
0 0 0 0 0 0 0 1 2 3 2 1 1 1 1 0 0 0 0 0 0 0 0 0 0 0 0 0 0 0 0 0 0 0 0 0 0 0 0 1 0 0 0 0
0 0 0 0 0 0 0 1 2 1 1 0 0 1 0 0 0 0 0 0 0 0 0 0 0 0 0 0 0 0 0 0 0 0 0 0 0 0 0 0 0 0 0 0
0 0 0 0 0 0 0 1 1 1 1 1 1 1 0 0 0 0 0 0 0 0 0 0 0 0 0 0 0 0 0 0 0 0 0 0 0 0 0 0 0 0 0 0
0 0 0 0 0 1 0 0 0 1 2 1 1 0 0 0 0 0 0 0 0 0 0 0 0 0 0 0 0 0 0 0 0 0 0 0 0 0 0 0 0 0 0 0
0 0 0 0 0 0 0 0 0 1 1 0 0 0 0 0 0 0 0 0 0 0 0 0 0 0 0 0 0 0 0 0 0 0 0 0 0 0 0 0 0 0 0 0
0 0 0 0 0 0 0 0 0 0 0 0 0 0 0 0 0 0 0 0 0 0 0 0 0 0 0 0 0 0 0 0 0 0 0 0 0 0 0 0 0 0 0 0
0 0 0 0 0 0 0 0 0 0 0 0 0 0 0 0 0 0 0 0 0 0 0 0 0 0 0 0 0 0 0 0 0 0 0 0 0 0 0 0 0 0 0 0
0 0 0 0 0 0 0 0 0 0 0 0 0 0 0 0 0 0 0 0 0 0 0 0 0 0 0 0 0 0 0 0 0 0 0 0 0 0 0 0 0 0 0 0
0 0 0 0 0 0 0 0 0 0 0 0 0 0 0 0 0 0 0 0 0 0 0 0 0 0 0 0 0 0 0 0 0 0 0 0 0 0 0 0 0 0 0 0
0 0 0 0 0 0 0 0 0 0 0 0 0 0 0 0 0 0 0 0 0 0 0 0 0 0 0 0 0 0 0 0 0 0 0 0 0 0 0 0 0 0 0 0
0 0 0 0 0 0 0 0 0 0 0 0 0 0 0 0 0 0 0 0 0 0 0 0 0 0 0 0 0 0 0 0 0 0 0 0 0 0 0 0 0 0 0 0
0 0 0 0 0 0 0 0 0 0 0 0 0 0 0 0 0 0 0 0 0 0 0 0 0 0 0 0 0 0 0 0 0 0 0 0 0 0 0 0 0 0 0 0
0 0 0 0 0 0 0 0 0 0 0 0 0 0 0 0 0 0 0 0 0 0 0 0 0 0 0 0 0 0 0 0 0 0 0 0 0 0 0 0 0 0 0 0
0 0 0 0 0 0 0 0 0 0 0 0 0 0 0 0 0 0 0 0 0 0 0 0 0 0 0 0 0 0 0 0 0 0 0 0 0 0 0 0 0 0 0 0
0 0 0 0 0 0 0 0 0 0 0 0 0 0 0 0 0 0 0 0 0 0 0 0 0 0 0 0 0 0 0 0 0 0 0 0 0 0 0 0 0 0 0 0
0 0 0 0 0 0 0 0 0 0 0 0 0 0 0 0 0 0 0 0 0 0 0 0 0 0 0 0 0 0 0 0 0 0 0 0 0 0 0 0 0 0 0 0
0 0 0 0 0 0 0 0 0 0 0 0 0 0 0 0 0 0 0 0 0 0 0 0 0 0 0 0 0 0 0 0 0 0 0 0 0 0 0 0 0 0 0 0

GEFSNGP_con_prob3kmehi_090.txt.gz
EHI
0 0 0 0 0 0 0 0 0 2 7 12 14 14 14 11 13 23 33 44 59 75 82 82 79 73 69 68 70 73 77 80 80 80 82 84 81 77 70 59 46 39 35 32
0 0 0 0 0 0 0 0 0 5 14 22 23 22 19 19 23 31 40 45 56 71 80 84 84 80 76 74 73 75 76 77 79 79 81 80 78 74 70 61 51 43 36 32
0 0 0 0 1 1 0 1 3 11 26 35 37 35 31 30 35 42 47 50 55 65 74 81 83 81 79 76 74 73 71 70 72 75 76 73 70 69 68 64 58 49 41 36
0 0 0 1 2 2 1 2 8 20 34 42 43 42 39 38 40 44 48 52 54 57 63 69 72 71 69 65 65 65 62 61 62 65 66 63 61 61 61 61 58 53 46 41
0 0 0 1 2 2 1 4 13 28 37 37 34 36 38 39 40 41 43 47 48 48 53 57 58 57 52 49 49 49 49 51 53 52 52 52 51 51 51 52 51 47 43 39
0 0 0 0 0 0 2 7 16 26 31 28 26 32 38 39 38 36 36 37 37 38 43 45 44 43 40 37 35 33 33 36 38 37 37 39 40 40 41 42 39 34 31 29
1 1 1 1 2 3 6 11 17 22 26 28 32 37 39 35 31 28 26 27 28 29 31 32 32 31 31 30 26 23 22 23 23 23 24 26 28 29 29 30 27 23 21 20
5 5 7 8 8 8 12 15 19 24 30 35 37 37 33 25 20 18 17 17 18 19 19 20 20 20 21 21 19 16 14 14 14 13 11 12 15 17 17 17 16 15 13 12
9 10 13 14 13 11 13 17 21 27 34 34 31 28 23 18 14 12 9 8 8 7 8 9 9 9 9 9 9 8 7 6 6 6 4 4 5 6 8 7 6 6 5 4
7 8 11 13 13 11 11 14 20 26 28 25 23 21 18 15 12 9 5 2 1 1 1 1 2 2 2 2 2 2 1 1 1 1 1 1 0 1 2 2 1 2 1 0
2 3 6 9 10 10 10 12 18 23 22 20 19 17 15 12 9 5 2 0 0 0 0 0 0 0 0 0 0 0 0 0 0 0 0 0 0 0 0 0 0 0 0 0
1 2 5 7 8 9 11 14 18 21 20 17 15 13 10 7 4 2 0 0 0 0 0 0 0 0 0 0 0 0 0 0 0 0 0 0 0 0 0 0 0 0 0 0
2 4 7 8 9 11 14 16 17 17 17 14 9 7 6 5 3 1 0 0 0 0 0 0 0 0 0 0 0 0 0 0 0 0 0 0 0 0 0 0 0 0 0 0
2 5 10 12 12 13 14 14 12 10 9 7 5 4 4 4 2 1 0 0 0 0 0 0 0 0 0 0 0 0 0 0 0 0 0 0 0 0 0 0 0 0 0 0
2 5 8 10 10 10 10 8 6 4 2 3 3 2 2 1 1 0 0 0 0 0 0 0 0 0 0 0 0 0 0 0 0 0 0 0 0 0 0 0 0 0 0 0
4 4 5 5 6 6 5 3 1 0 0 1 1 1 0 0 0 0 0 0 0 0 0 0 0 0 0 0 0 0 0 0 0 0 0 0 0 0 0 0 0 0 0 0
4 3 3 3 2 2 1 0 0 0 0 0 0 0 0 0 0 0 0 0 0 0 0 0 0 0 0 0 0 0 0 0 0 0 0 0 0 0 0 0 0 0 0 0
3 3 2 1 1 1 0 0 0 0 0 0 0 0 0 0 0 0 0 0 0 0 0 0 0 0 0 0 0 0 0 0 0 0 0 0 0 0 0 0 0 0 0 0
2 2 1 0 0 0 0 0 0 0 0 0 0 0 0 0 0 0 0 0 0 0 0 0 0 0 0 0 0 0 0 0 0 0 0 0 0 0 0 0 0 0 0 0
0 0 0 0 0 0 0 0 0 0 0 0 0 0 0 0 0 0 0 0 0 0 0 0 0 0 0 0 0 0 0 0 0 0 0 0 0 0 0 0 0 0 0 0
0 0 0 0 0 0 0 0 0 0 0 0 0 0 0 0 0 0 0 0 0 0 0 0 0 0 0 0 0 0 0 0 0 0 0 0 0 0 0 0 0 0 0 0
0 0 0 0 0 0 0 0 0 0 0 0 0 0 0 0 0 0 0 0 0 0 0 0 0 0 0 0 0 0 0 0 0 0 0 0 0 0 0 0 0 0 0 0
0 0 0 0 0 0 0 0 0 0 0 0 0 0 0 0 0 0 0 0 0 0 0 0 0 0 0 0 0 0 0 0 0 0 0 0 0 0 0 0 0 0 0 0
0 0 0 0 0 0 0 0 0 0 0 0 0 0 0 0 0 0 0 0 0 0 0 0 0 0 0 0 0 0 0 0 0 0 0 0 0 0 0 0 0 0 0 0
0 0 0 0 0 0 0 0 0 0 0 0 0 0 0 0 0 0 0 0 0 0 0 0 0 0 0 0 0 0 0 0 0 0 0 0 0 0 0 0 0 0 0 0
0 0 0 0 0 0 0 0 0 0 0 0 0 0 0 0 0 0 0 0 0 0 0 0 0 0 0 0 0 0 0 0 0 0 0 0 0 0 0 0 0 0 0 0
0 0 0 0 0 0 0 0 0 0 0 0 0 0 0 0 0 0 0 0 0 0 0 0 0 0 0 0 0 0 0 0 0 0 0 0 0 0 0 0 0 0 0 0

GEFSNGP_con_prob3kmehi_096.txt.gz
EHI
0 0 0 0 0 0 0 0 0 1 1 1 0 1 2 3 5 6 9 11 13 13 13 13 14 15 15 14 13 12 9 7 7 7 7 7 8 9 7 5 4 2 0 0
0 0 0 0 0 0 0 0 2 3 3 2 2 2 4 6 8 9 10 11 12 11 10 11 12 13 13 12 12 12 11 9 8 7 7 7 8 9 8 7 6 4 2 1
0 0 0 0 0 0 0 1 4 6 7 8 8 7 7 9 12 13 11 9 8 8 7 8 9 10 10 10 10 11 10 11 11 10 10 9 8 8 8 9 8 6 4 3
0 0 0 0 0 1 2 4 7 12 14 16 15 14 11 10 10 11 9 6 5 6 6 6 8 8 8 8 8 8 6 7 10 11 10 9 8 7 7 7 6 5 4 4
0 0 0 0 0 2 5 8 11 17 19 18 18 18 15 11 8 7 7 6 6 6 6 5 5 7 7 6 6 4 3 4 6 8 8 7 7 6 5 4 3 3 3 2
0 0 0 0 0 2 5 8 10 14 14 13 14 16 15 11 8 6 6 7 6 5 4 2 2 4 5 4 3 2 2 3 4 5 5 5 4 4 3 1 1 1 1 1
0 0 0 0 0 1 2 4 6 8 8 9 11 12 10 8 5 3 3 3 3 2 1 0 0 1 1 1 1 1 1 1 2 2 2 1 1 1 1 0 0 0 0 0
0 0 0 0 0 0 1 3 6 8 9 9 9 8 6 4 2 1 1 1 0 0 0 0 0 0 0 0 0 0 0 0 0 0 0 0 0 0 0 0 0 0 0 0
0 0 0 0 0 1 3 7 10 11 10 8 6 4 2 1 0 0 0 0 0 0 0 0 0 0 0 0 0 0 0 0 0 0 0 0 0 0 0 0 0 0 0 0
0 1 1 1 1 2 5 8 10 9 7 4 2 1 0 0 0 0 0 0 0 0 0 0 0 0 0 0 0 0 0 0 0 0 0 0 0 0 0 0 0 0 0 0
0 1 1 1 0 2 5 6 6 4 2 1 0 0 0 0 0 0 0 0 0 0 0 0 0 0 0 0 0 0 0 0 0 0 0 0 0 0 0 0 0 0 0 0
0 0 1 0 0 1 3 3 2 1 0 0 0 0 0 0 0 0 0 0 0 0 0 0 0 0 0 0 0 0 0 0 0 0 0 0 0 0 0 0 0 0 0 0
0 0 1 0 0 0 1 1 0 0 0 0 0 0 0 0 0 0 0 0 0 0 0 0 0 0 0 0 0 0 0 0 0 0 0 0 0 0 0 0 0 0 0 0
0 0 0 0 0 0 0 0 0 0 0 0 0 0 0 0 0 0 0 0 0 0 0 0 0 0 0 0 0 0 0 0 0 0 0 0 0 0 0 0 0 0 0 0
0 0 0 0 0 0 0 0 0 0 0 0 0 0 0 0 0 0 0 0 0 0 0 0 0 0 0 0 0 0 0 0 0 0 0 0 0 0 0 0 0 0 0 0
0 0 0 0 0 0 0 0 0 0 0 0 0 0 0 0 0 0 0 0 0 0 0 0 0 0 0 0 0 0 0 0 0 0 0 0 0 0 0 0 0 0 0 0
0 0 0 0 0 0 0 0 0 0 0 0 0 0 0 0 0 0 0 0 0 0 0 0 0 0 0 0 0 0 0 0 0 0 0 0 0 0 0 0 0 0 0 0
0 0 0 0 0 0 0 0 0 0 0 0 0 0 0 0 0 0 0 0 0 0 0 0 0 0 0 0 0 0 0 0 0 0 0 0 0 0 0 0 0 0 0 0
0 0 0 0 0 0 0 0 0 0 0 0 0 0 0 0 0 0 0 0 0 0 0 0 0 0 0 0 0 0 0 0 0 0 0 0 0 0 0 0 0 0 0 0
0 0 0 0 0 0 0 0 0 0 0 0 0 0 0 0 0 0 0 0 0 0 0 0 0 0 0 0 0 0 0 0 0 0 0 0 0 0 0 0 0 0 0 0
0 0 0 0 0 0 0 0 0 0 0 0 0 0 0 0 0 0 0 0 0 0 0 0 0 0 0 0 0 0 0 0 0 0 0 0 0 0 0 0 0 0 0 0
0 0 0 0 0 0 0 0 0 0 0 0 0 0 0 0 0 0 0 0 0 0 0 0 0 0 0 0 0 0 0 0 0 0 0 0 0 0 0 0 0 0 0 0
0 0 0 0 0 0 0 0 0 0 0 0 0 0 0 0 0 0 0 0 0 0 0 0 0 0 0 0 0 0 0 0 0 0 0 0 0 0 0 0 0 0 0 0
0 0 0 0 0 0 0 0 0 0 0 0 0 0 0 0 0 0 0 0 0 0 0 0 0 0 0 0 0 0 0 0 0 0 0 0 0 0 0 0 0 0 0 0
0 0 0 0 0 0 0 0 0 0 0 0 0 0 0 0 0 0 0 0 0 0 0 0 0 0 0 0 0 0 0 0 0 0 0 0 0 0 0 0 0 0 0 0
0 0 0 0 0 0 0 0 0 0 0 0 0 0 0 0 0 0 0 0 0 0 0 0 0 0 0 0 0 0 0 0 0 0 0 0 0 0 0 0 0 0 0 0
0 0 0 0 0 0 0 0 0 0 0 0 0 0 0 0 0 0 0 0 0 0 0 0 0 0 0 0 0 0 0 0 0 0 0 0 0 0 0 0 0 0 0 0

GEFSNGP_con_prob3kmehi_102.txt.gz
EHI
0 0 0 0 0 0 0 0 0 0 0 0 0 0 0 0 0 0 1 0 0 1 3 3 3 3 4 5 6 6 6 3 2 1 0 0 0 0 0 0 0 0 0 0
0 0 0 0 0 0 0 0 0 0 0 0 0 0 0 0 0 0 1 1 1 2 3 3 3 3 4 5 4 4 3 2 1 0 0 0 0 0 0 0 0 0 0 0
0 0 0 0 0 0 0 0 0 0 1 1 0 0 0 0 0 0 0 1 2 3 3 3 3 3 4 4 4 3 1 0 0 0 0 0 0 0 0 0 0 0 0 0
0 0 0 0 0 0 0 0 0 1 2 2 1 1 2 1 0 0 0 1 1 2 2 3 3 3 4 5 5 3 1 0 0 0 0 0 0 0 0 0 0 0 0 0
0 0 0 0 0 0 0 0 0 1 2 4 3 3 4 3 1 0 0 0 0 0 1 2 3 4 5 6 5 2 0 0 0 0 0 0 0 0 0 0 0 0 0 0
0 0 0 0 0 0 0 0 0 1 3 5 4 3 4 4 2 0 0 0 0 0 0 1 1 3 4 4 3 1 0 0 0 0 0 0 0 0 0 0 0 0 0 0
0 0 0 0 0 0 0 0 1 2 4 4 3 2 3 4 2 0 0 0 0 0 0 0 0 1 1 1 1 0 0 0 0 0 0 0 0 0 0 0 0 0 0 0
0 0 0 0 0 0 0 1 3 4 3 2 1 2 3 2 1 0 0 0 0 0 0 0 0 0 0 0 0 0 0 0 0 0 0 0 0 0 0 0 0 0 0 0
0 0 0 0 0 0 0 1 3 3 1 1 1 2 1 1 0 0 0 0 0 0 0 0 0 0 0 0 0 0 0 0 0 0 0 0 0 0 0 0 0 0 0 0
0 0 0 0 0 0 0 0 1 1 0 0 1 1 0 0 0 0 0 0 0 0 0 0 0 0 0 0 0 0 0 0 0 0 0 0 0 0 0 0 0 0 0 0
0 0 0 0 0 0 0 0 0 0 0 0 0 0 0 0 0 0 0 0 0 0 0 0 0 0 0 0 0 0 0 0 0 0 0 0 0 0 0 0 0 0 0 0
0 0 0 0 0 0 0 0 0 0 0 0 0 0 0 0 0 0 0 0 0 0 0 0 0 0 0 0 0 0 0 0 0 0 0 0 0 0 0 0 0 0 0 0
0 0 0 0 0 0 0 0 0 0 0 0 0 0 0 0 0 0 0 0 0 0 0 0 0 0 0 0 0 0 0 0 0 0 0 0 0 0 0 0 0 0 0 0
0 0 0 0 0 0 0 0 0 0 0 0 0 0 0 0 0 0 0 0 0 0 0 0 0 0 0 0 0 0 0 0 0 0 0 0 0 0 0 0 0 0 0 0
0 0 0 0 0 0 0 0 0 0 0 0 0 0 0 0 0 0 0 0 0 0 0 0 0 0 0 0 0 0 0 0 0 0 0 0 0 0 0 0 0 0 0 0
0 0 0 0 0 0 0 0 0 0 0 0 0 0 0 0 0 0 0 0 0 0 0 0 0 0 0 0 0 0 0 0 0 0 0 0 0 0 0 0 0 0 0 0
0 0 0 0 0 0 0 0 0 0 0 0 0 0 0 0 0 0 0 0 0 0 0 0 0 0 0 0 0 0 0 0 0 0 0 0 0 0 0 0 0 0 0 0
0 0 0 0 0 0 0 0 0 0 0 0 0 0 0 0 0 0 0 0 0 0 0 0 0 0 0 0 0 0 0 0 0 0 0 0 0 0 0 0 0 0 0 0
0 0 0 0 0 0 0 0 0 0 0 0 0 0 0 0 0 0 0 0 0 0 0 0 0 0 0 0 0 0 0 0 0 0 0 0 0 0 0 0 0 0 0 0
0 0 0 0 0 0 0 0 0 0 0 0 0 0 0 0 0 0 0 0 0 0 0 0 0 0 0 0 0 0 0 0 0 0 0 0 0 0 0 0 0 0 0 0
0 0 0 0 0 0 0 0 0 0 0 0 0 0 0 0 0 0 0 0 0 0 0 0 0 0 0 0 0 0 0 0 0 0 0 0 0 0 0 0 0 0 0 0
0 0 0 0 0 0 0 0 0 0 0 0 0 0 0 0 0 0 0 0 0 0 0 0 0 0 0 0 0 0 0 0 0 0 0 0 0 0 0 0 0 0 0 0
0 0 0 0 0 0 0 0 0 0 0 0 0 0 0 0 0 0 0 0 0 0 0 0 0 0 0 0 0 0 0 0 0 0 0 0 0 0 0 0 0 0 0 0
0 0 0 0 0 0 0 0 0 0 0 0 0 0 0 0 0 0 0 0 0 0 0 0 0 0 0 0 0 0 0 0 0 0 0 0 0 0 0 0 0 0 0 0
0 0 0 0 0 0 0 0 0 0 0 0 0 0 0 0 0 0 0 0 0 0 0 0 0 0 0 0 0 0 0 0 0 0 0 0 0 0 0 0 0 0 0 0
0 0 0 0 0 0 0 0 0 0 0 0 0 0 0 0 0 0 0 0 0 0 0 0 0 0 0 0 0 0 0 0 0 0 0 0 0 0 0 0 0 0 0 0
0 0 0 0 0 0 0 0 0 0 0 0 0 0 0 0 0 0 0 0 0 0 0 0 0 0 0 0 0 0 0 0 0 0 0 0 0 0 0 0 0 0 0 0

GEFSNGP_con_prob3kmehi_108.txt.gz
EHI
0 0 0 0 0 0 0 0 0 0 1 6 13 18 20 23 26 27 28 28 23 22 22 22 24 24 21 17 16 18 20 21 21 20 18 15 13 13 13 10 8 6 5 4
0 0 0 0 0 0 0 0 0 0 2 8 15 20 21 22 27 29 28 25 23 23 23 23 23 22 21 20 20 20 21 21 21 20 19 17 16 16 15 12 8 6 5 6
0 0 0 1 1 0 0 0 0 1 4 12 20 25 25 24 28 31 29 27 27 26 24 24 23 22 23 23 23 22 21 20 21 20 19 17 17 16 14 11 8 6 6 6
0 0 0 1 1 0 0 0 0 2 9 19 29 33 30 27 29 32 32 32 33 31 26 24 25 24 23 22 22 22 21 20 20 20 16 14 13 11 9 9 8 8 6 6
0 0 0 1 1 0 0 1 2 5 14 25 32 31 27 26 29 32 33 34 35 33 29 27 27 24 20 18 18 18 17 17 18 17 14 10 7 6 7 8 8 8 7 6
0 0 0 0 0 0 0 2 4 9 19 25 24 22 22 22 25 27 28 29 30 30 29 28 26 22 18 15 15 13 12 12 13 13 11 8 5 5 7 8 7 6 5 4
0 0 0 0 0 1 3 4 7 11 17 21 20 21 20 17 18 20 21 21 21 23 24 23 20 16 14 12 11 10 9 8 9 9 8 7 5 5 6 6 5 4 2 1
0 0 0 0 1 3 5 7 7 9 13 17 20 20 17 13 12 14 14 13 13 14 15 15 12 10 7 6 7 7 7 6 5 6 5 5 3 3 3 3 3 2 1 0
1 0 1 2 2 4 5 5 5 6 10 13 14 13 10 9 9 8 8 7 5 5 6 6 6 4 2 2 3 4 3 2 2 2 2 1 1 1 1 1 1 1 0 0
1 1 2 3 3 3 2 2 3 5 8 9 7 5 4 5 5 4 3 2 1 1 1 1 2 1 0 0 1 1 1 0 0 0 0 0 0 0 0 0 0 0 0 0
1 1 2 3 3 3 2 2 3 4 6 7 5 2 1 1 1 1 1 0 0 0 0 0 0 0 0 0 0 0 0 0 0 0 0 0 0 0 0 0 0 0 0 0
0 1 2 3 3 2 1 1 2 3 4 4 3 1 0 0 0 0 0 0 0 0 0 0 0 0 0 0 0 0 0 0 0 0 0 0 0 0 0 0 0 0 0 0
0 0 1 2 2 1 0 1 1 2 2 1 1 0 0 0 0 0 0 0 0 0 0 0 0 0 0 0 0 0 0 0 0 0 0 0 0 0 0 0 0 0 0 0
0 0 0 1 1 0 0 1 2 2 1 0 0 0 0 0 0 0 0 0 0 0 0 0 0 0 0 0 0 0 0 0 0 0 0 0 0 0 0 0 0 0 0 0
0 0 0 0 0 0 0 1 2 1 1 0 0 0 0 0 0 0 0 0 0 0 0 0 0 0 0 0 0 0 0 0 0 0 0 0 0 0 0 0 0 0 0 0
0 0 0 0 0 0 0 0 0 0 0 0 0 0 0 0 0 0 0 0 0 0 0 0 0 0 0 0 0 0 0 0 0 0 0 0 0 0 0 0 0 0 0 0
0 0 0 0 0 0 0 0 0 0 0 0 0 0 0 0 0 0 0 0 0 0 0 0 0 0 0 0 0 0 0 0 0 0 0 0 0 0 0 0 0 0 0 0
0 0 0 0 0 0 0 0 0 0 0 0 0 0 0 0 0 0 0 0 0 0 0 0 0 0 0 0 0 0 0 0 0 0 0 0 0 0 0 0 0 0 0 0
0 0 0 0 0 0 0 0 0 0 0 0 0 0 0 0 0 0 0 0 0 0 0 0 0 0 0 0 0 0 0 0 0 0 0 0 0 0 0 0 0 0 0 0
0 0 0 0 0 0 0 0 0 0 0 0 0 0 0 0 0 0 0 0 0 0 0 0 0 0 0 0 0 0 0 0 0 0 0 0 0 0 0 0 0 0 0 0
0 0 0 0 0 0 0 0 0 0 0 0 0 0 0 0 0 0 0 0 0 0 0 0 0 0 0 0 0 0 0 0 0 0 0 0 0 0 0 0 0 0 0 0
0 0 0 0 0 0 0 0 0 0 0 0 0 0 0 0 0 0 0 0 0 0 0 0 0 0 0 0 0 0 0 0 0 0 0 0 0 0 0 0 0 0 0 0
0 0 0 0 0 0 0 0 0 0 0 0 0 0 0 0 0 0 0 0 0 0 0 0 0 0 0 0 0 0 0 0 0 0 0 0 0 0 0 0 0 0 0 0
0 0 0 0 0 0 0 0 0 0 0 0 0 0 0 0 0 0 0 0 0 0 0 0 0 0 0 0 0 0 0 0 0 0 0 0 0 0 0 0 0 0 0 0
0 0 0 0 0 0 0 0 0 0 0 0 0 0 0 0 0 0 0 0 0 0 0 0 0 0 0 0 0 0 0 0 0 0 0 0 0 0 0 0 0 0 0 0
0 0 0 0 0 0 0 0 0 0 0 0 0 0 0 0 0 0 0 0 0 0 0 0 0 0 0 0 0 0 0 0 0 0 0 0 0 0 0 0 0 0 0 0
0 0 0 0 0 0 0 0 0 0 0 0 0 0 0 0 0 0 0 0 0 0 0 0 0 0 0 0 0 0 0 0 0 0 0 0 0 0 0 0 0 0 0 0

GEFSNGP_con_prob3kmehi_114.txt.gz
EHI
0 0 0 0 0 0 0 0 1 2 3 5 8 11 15 26 36 43 47 53 62 68 68 63 55 50 46 43 41 41 40 41 42 43 39 32 29 28 25 21 16 14 12 12
0 0 0 0 0 0 0 0 1 2 4 7 11 14 19 29 38 43 46 53 61 66 65 60 54 50 47 43 41 39 39 39 39 38 34 30 26 24 23 21 16 13 11 10
0 0 0 0 1 1 0 0 2 4 7 12 18 23 30 39 44 46 49 55 59 62 62 58 54 50 48 45 41 37 35 35 32 30 28 25 22 20 20 19 15 11 9 8
0 0 0 0 1 1 1 3 6 8 12 19 29 36 43 49 52 52 54 56 56 57 58 58 55 51 48 44 40 34 30 28 26 23 22 20 18 17 16 14 12 9 6 5
0 0 0 0 1 1 2 6 12 16 19 27 37 42 46 51 52 51 52 52 51 51 53 56 54 49 43 38 33 28 24 23 22 20 19 17 15 13 11 9 7 6 5 4
0 0 0 0 0 0 1 7 18 25 28 34 40 43 45 46 44 44 45 45 45 45 46 47 46 42 37 31 27 23 21 19 19 18 16 14 12 9 6 5 4 4 4 4
0 0 0 0 0 2 4 10 19 28 33 38 41 45 43 38 35 36 37 37 38 38 38 38 37 34 31 27 23 20 18 17 15 14 12 10 9 7 5 4 3 3 3 2
1 1 1 1 2 5 10 13 16 22 28 33 34 36 34 29 27 29 30 31 33 33 33 33 31 29 27 24 20 17 15 13 11 10 8 6 6 6 5 4 4 3 1 0
3 3 2 2 4 7 11 14 15 16 19 20 19 19 21 20 20 22 25 27 30 31 31 30 27 24 22 19 16 14 11 9 7 6 5 4 4 3 2 3 3 3 1 0
2 2 1 2 4 6 9 13 15 14 13 11 10 11 14 15 15 16 18 20 22 23 23 20 18 16 15 13 11 9 7 4 3 2 2 1 1 0 0 1 2 2 1 1
1 0 0 1 3 4 6 10 12 13 11 11 12 13 13 13 12 11 10 10 10 9 8 7 8 8 7 6 5 4 2 1 1 0 0 0 0 0 0 0 1 1 1 0
0 0 0 1 2 3 4 6 8 9 10 11 13 13 12 11 9 7 5 4 3 1 0 0 1 2 2 1 1 1 0 0 0 0 0 0 0 0 0 0 0 0 0 0
0 0 1 2 2 2 2 2 4 6 7 9 10 9 8 7 5 4 3 2 1 0 0 0 0 0 0 0 0 0 0 0 0 0 0 0 0 0 0 0 0 0 0 0
0 0 1 1 1 1 1 1 2 3 4 6 6 5 4 3 1 1 1 0 0 0 0 0 0 0 0 0 0 0 0 0 0 0 0 0 0 0 0 0 0 0 0 0
0 0 0 0 0 0 0 1 2 2 2 3 2 1 1 0 0 0 0 0 0 0 0 0 0 0 0 0 0 0 0 0 0 0 0 0 0 0 0 0 0 0 0 0
0 0 0 0 0 0 0 1 1 1 2 2 1 0 0 0 0 0 0 0 0 0 0 0 0 0 0 0 0 0 0 0 0 0 0 0 0 0 0 0 0 0 0 0
0 0 0 0 0 0 0 0 0 1 1 1 0 0 0 0 0 0 0 0 0 0 0 0 0 0 0 0 0 0 0 0 0 0 0 0 0 0 0 0 0 0 0 0
0 0 0 0 0 0 0 0 0 0 0 0 0 0 0 0 0 0 0 0 0 0 0 0 0 0 0 0 0 0 0 0 0 0 0 0 0 0 0 0 0 0 0 0
0 0 0 0 0 0 0 0 0 0 0 0 0 0 0 0 0 0 0 0 0 0 0 0 0 0 0 0 0 0 0 0 0 0 0 0 0 0 0 0 0 0 0 0
0 0 0 0 0 0 0 0 0 0 0 0 0 0 0 0 0 0 0 0 0 0 0 0 0 0 0 0 0 0 0 0 0 0 0 0 0 0 0 0 0 0 0 0
1 0 0 0 0 0 0 0 0 0 0 0 0 0 0 0 0 0 0 0 0 0 0 0 0 0 0 0 0 0 0 0 0 0 0 0 0 0 0 0 0 0 0 0
2 1 0 0 0 0 0 0 0 0 0 0 0 0 0 0 0 0 0 0 0 0 0 0 0 0 0 0 0 0 0 0 0 0 0 0 0 0 0 0 0 0 0 0
2 1 0 0 0 0 0 0 0 0 0 0 0 0 0 0 0 0 0 0 0 0 0 0 0 0 0 0 0 0 0 0 0 0 0 0 0 0 0 0 0 0 0 0
1 0 0 0 0 0 0 0 0 0 0 0 0 0 0 0 0 0 0 0 0 0 0 0 0 0 0 0 0 0 0 0 0 0 0 0 0 0 0 0 0 0 0 0
0 0 0 0 0 0 0 0 0 0 0 0 0 0 0 0 0 0 0 0 0 0 0 0 0 0 0 0 0 0 0 0 0 0 0 0 0 0 0 0 0 0 0 0
0 0 0 0 0 0 0 0 0 0 0 0 0 0 0 0 0 0 0 0 0 0 0 0 0 0 0 0 0 0 0 0 0 0 0 0 0 0 0 0 0 0 0 0
0 0 0 0 0 0 0 0 0 0 0 0 0 0 0 0 0 0 0 0 0 0 0 0 0 0 0 0 0 0 0 0 0 0 0 0 0 0 0 0 0 0 0 0

GEFSNGP_con_prob3kmehi_120.txt.gz
EHI
0 0 0 0 0 0 0 0 0 0 0 1 2 5 8 12 13 14 17 19 17 11 7 7 11 13 13 13 14 16 19 18 15 13 12 7 4 2 1 0 0 0 0 0
0 0 0 0 0 0 1 1 0 0 0 2 5 7 9 14 17 18 20 22 19 13 7 7 10 11 11 11 12 14 16 15 13 11 9 6 3 2 1 1 0 0 0 0
0 0 0 0 0 1 3 3 2 1 3 6 10 12 13 17 19 20 21 23 21 16 11 8 7 9 9 9 10 11 12 10 7 6 5 4 3 2 2 1 0 0 0 0
0 0 0 0 0 2 4 4 3 4 6 10 14 18 17 16 16 15 15 16 18 19 17 12 8 8 9 10 11 11 9 7 5 4 4 4 3 3 2 1 0 0 0 0
0 0 0 0 0 1 2 2 2 4 7 11 17 21 19 13 10 8 8 10 13 18 21 18 13 11 11 12 12 11 9 8 7 6 6 5 3 2 1 0 0 0 0 0
0 0 0 0 0 0 0 0 1 3 5 8 14 18 15 11 8 6 5 7 10 15 20 20 16 14 13 13 12 10 9 9 8 7 5 3 2 0 0 0 0 0 0 0
0 0 0 0 0 0 0 0 2 4 5 6 8 9 9 9 8 6 5 7 10 14 16 17 15 14 13 12 10 8 8 6 5 3 2 1 0 0 0 0 0 0 0 0
0 0 0 0 0 0 0 1 3 5 5 5 4 4 6 7 8 8 8 10 12 13 13 12 11 12 13 10 7 5 3 2 1 1 0 0 0 0 0 0 0 0 0 0
0 0 0 0 0 0 0 1 2 3 3 3 3 3 4 6 7 8 9 12 13 12 10 8 8 9 10 7 3 1 1 0 0 0 0 0 0 0 0 0 0 0 0 0
0 0 0 0 0 0 0 0 0 0 1 1 2 2 2 4 5 5 6 8 9 8 6 5 4 5 5 3 1 0 0 0 0 0 0 0 0 0 0 0 0 0 0 0
0 0 0 0 0 0 0 0 0 0 0 0 1 1 1 3 3 2 2 3 4 4 3 2 1 1 1 0 0 0 0 0 0 0 0 0 0 0 0 0 0 0 0 0
0 0 0 0 0 0 0 0 0 0 0 0 0 1 2 3 2 1 0 0 1 1 1 0 0 0 0 0 0 0 0 0 0 0 0 0 0 0 0 0 0 0 0 0
0 0 0 0 0 0 0 0 0 0 0 0 0 1 2 2 1 0 0 0 0 0 0 0 0 0 0 0 0 0 0 0 0 0 0 0 0 0 0 0 0 0 0 0
0 0 0 0 0 0 0 0 0 0 0 0 0 1 1 1 0 0 0 0 0 0 0 0 0 0 0 0 0 0 0 0 0 0 0 0 0 0 0 0 0 0 0 0
0 0 0 0 0 0 0 0 0 0 0 0 0 0 0 0 0 0 0 0 0 0 0 0 0 0 0 0 0 0 0 0 0 0 0 0 0 0 0 0 0 0 0 0
0 0 0 0 0 0 0 0 0 0 0 0 0 0 0 0 0 0 0 0 0 0 0 0 0 0 0 0 0 0 0 0 0 0 0 0 0 0 0 0 0 0 0 0
0 0 0 0 0 0 0 0 0 0 0 0 0 0 0 0 0 0 0 0 0 0 0 0 0 0 0 0 0 0 0 0 0 0 0 0 0 0 0 0 0 0 0 0
0 0 0 0 0 0 0 0 0 0 0 0 0 0 0 0 0 0 0 0 0 0 0 0 0 0 0 0 0 0 0 0 0 0 0 0 0 0 0 0 0 0 0 0
0 0 0 0 0 0 0 0 0 0 0 0 0 0 0 0 0 0 0 0 0 0 0 0 0 0 0 0 0 0 0 0 0 0 0 0 0 0 0 0 0 0 0 0
0 0 0 0 0 0 0 0 0 0 0 0 0 0 0 0 0 0 0 0 0 0 0 0 0 0 0 0 0 0 0 0 0 0 0 0 0 0 0 0 0 0 0 0
0 0 0 0 0 0 0 0 0 0 0 0 0 0 0 0 0 0 0 0 0 0 0 0 0 0 0 0 0 0 0 0 0 0 0 0 0 0 0 0 0 0 0 0
0 0 0 0 0 0 0 0 0 0 0 0 0 0 0 0 0 0 0 0 0 0 0 0 0 0 0 0 0 0 0 0 0 0 0 0 0 0 0 0 0 0 0 0
0 0 0 0 0 0 0 0 0 0 0 0 0 0 0 0 0 0 0 0 0 0 0 0 0 0 0 0 0 0 0 0 0 0 0 0 0 0 0 0 0 0 0 0
0 0 0 0 0 0 0 0 0 0 0 0 0 0 0 0 0 0 0 0 0 0 0 0 0 0 0 0 0 0 0 0 0 0 0 0 0 0 0 0 0 0 0 0
0 0 0 0 0 0 0 0 0 0 0 0 0 0 0 0 0 0 0 0 0 0 0 0 0 0 0 0 0 0 0 0 0 0 0 0 0 0 0 0 0 0 0 0
0 0 0 0 0 0 0 0 0 0 0 0 0 0 0 0 0 0 0 0 0 0 0 0 0 0 0 0 0 0 0 0 0 0 0 0 0 0 0 0 0 0 0 0
0 0 0 0 0 0 0 0 0 0 0 0 0 0 0 0 0 0 0 0 0 0 0 0 0 0 0 0 0 0 0 0 0 0 0 0 0 0 0 0 0 0 0 0

GEFSNGP_con_prob3kmehi_126.txt.gz
EHI
0 0 0 0 0 0 0 0 0 0 0 0 0 0 0 1 1 1 2 2 2 1 1 0 0 0 0 0 2 5 6 5 4 4 2 1 0 0 0 0 0 0 0 0
0 0 0 0 0 0 0 0 0 0 0 0 1 1 1 0 0 1 1 1 1 1 1 0 0 0 0 1 2 4 5 6 5 4 2 1 0 0 0 0 0 0 0 0
0 0 0 0 0 0 0 0 0 0 1 2 3 3 2 0 0 0 1 0 0 0 0 0 0 0 0 1 2 3 4 6 6 4 3 1 0 0 0 0 0 0 0 0
0 0 0 0 0 0 0 0 0 1 3 4 4 3 2 1 0 0 0 0 0 0 0 0 0 0 0 1 2 3 4 6 6 5 3 1 0 0 0 0 0 0 0 0
0 0 0 0 0 0 0 0 1 2 3 3 3 2 2 1 0 0 0 0 0 0 0 0 0 0 0 0 1 3 4 5 6 5 3 1 0 0 0 0 0 0 0 0
0 0 0 0 0 0 0 1 1 1 1 1 1 1 1 1 0 0 1 1 1 0 0 0 0 0 0 0 1 2 3 4 4 3 2 1 0 0 0 0 0 0 0 0
0 0 0 0 0 0 0 0 0 0 0 0 0 0 0 0 0 0 1 2 2 1 0 0 0 0 0 0 1 3 3 3 3 1 1 0 0 0 0 0 0 0 0 0
0 0 0 0 0 0 0 0 0 0 0 0 0 0 0 0 0 0 1 2 2 1 0 0 0 1 1 1 2 3 3 3 2 1 0 0 0 0 0 0 0 0 0 0
0 0 0 0 0 0 0 0 0 0 0 0 0 1 2 1 1 1 1 1 1 0 0 0 0 1 2 3 3 3 3 2 1 0 0 0 0 0 0 0 0 0 0 0
0 0 0 0 0 0 0 0 0 0 0 0 0 1 2 1 1 0 0 0 0 0 0 0 0 1 2 2 2 2 2 1 0 0 0 0 0 0 0 0 0 0 0 0
0 0 0 0 0 0 0 0 0 0 0 0 0 1 1 1 0 0 0 0 0 0 0 0 0 0 1 1 1 1 1 0 0 0 0 0 0 0 0 0 0 0 0 0
0 0 0 0 0 0 0 0 0 0 0 0 0 0 0 0 0 0 0 0 0 0 0 0 0 0 0 0 0 0 0 0 0 0 0 0 0 0 0 0 0 0 0 0
0 0 0 0 0 0 0 0 0 0 0 0 0 0 0 0 0 0 0 0 0 0 0 0 0 0 0 0 0 0 0 0 0 0 0 0 0 0 0 0 0 0 0 0
0 0 0 0 0 0 0 0 0 0 0 0 0 0 0 0 0 0 0 0 0 0 0 0 0 0 0 0 0 0 0 0 0 0 0 0 0 0 0 0 0 0 0 0
0 0 0 0 0 0 0 0 0 0 0 0 0 0 0 0 0 0 0 0 0 0 0 0 0 0 0 0 0 0 0 0 0 0 0 0 0 0 0 0 0 0 0 0
0 0 0 0 0 0 0 0 0 0 0 0 0 0 0 0 0 0 0 0 0 0 0 0 0 0 0 0 0 0 0 0 0 0 0 0 0 0 0 0 0 0 0 0
0 0 0 0 0 0 0 0 0 0 0 0 0 0 0 0 0 0 0 0 0 0 0 0 0 0 0 0 0 0 0 0 0 0 0 0 0 0 0 0 0 0 0 0
0 0 0 0 0 0 0 0 0 0 0 0 0 0 0 0 0 0 0 0 0 0 0 0 0 0 0 0 0 0 0 0 0 0 0 0 0 0 0 0 0 0 0 0
0 0 0 0 0 0 0 0 0 0 0 0 0 0 0 0 0 0 0 0 0 0 0 0 0 0 0 0 0 0 0 0 0 0 0 0 0 0 0 0 0 0 0 0
0 0 0 0 0 0 0 0 0 0 0 0 0 0 0 0 0 0 0 0 0 0 0 0 0 0 0 0 0 0 0 0 0 0 0 0 0 0 0 0 0 0 0 0
0 0 0 0 0 0 0 0 0 0 0 0 0 0 0 0 0 0 0 0 0 0 0 0 0 0 0 0 0 0 0 0 0 0 0 0 0 0 0 0 0 0 0 0
0 0 0 0 0 0 0 0 0 0 0 0 0 0 0 0 0 0 0 0 0 0 0 0 0 0 0 0 0 0 0 0 0 0 0 0 0 0 0 0 0 0 0 0
0 0 0 0 0 0 0 0 0 0 0 0 0 0 0 0 0 0 0 0 0 0 0 0 0 0 0 0 0 0 0 0 0 0 0 0 0 0 0 0 0 0 0 0
0 0 0 0 0 0 0 0 0 0 0 0 0 0 0 0 0 0 0 0 0 0 0 0 0 0 0 0 0 0 0 0 0 0 0 0 0 0 0 0 0 0 0 0
0 0 0 0 0 0 0 0 0 0 0 0 0 0 0 0 0 0 0 0 0 0 0 0 0 0 0 0 0 0 0 0 0 0 0 0 0 0 0 0 0 0 0 0
0 0 0 0 0 0 0 0 0 0 0 0 0 0 0 0 0 0 0 0 0 0 0 0 0 0 0 0 0 0 0 0 0 0 0 0 0 0 0 0 0 0 0 0
0 0 0 0 0 0 0 0 0 0 0 0 0 0 0 0 0 0 0 0 0 0 0 0 0 0 0 0 0 0 0 0 0 0 0 0 0 0 0 0 0 0 0 0

GEFSNGP_con_prob3kmehi_132.txt.gz
EHI
0 0 0 0 0 0 0 0 0 0 0 2 6 11 18 24 25 27 30 29 28 28 26 20 15 12 13 16 15 13 12 12 13 13 13 13 12 11 10 8 6 4 4 4
0 0 0 0 0 0 0 0 0 0 0 3 9 17 24 26 26 30 33 34 31 28 25 21 16 12 12 14 12 10 10 11 12 12 12 12 11 11 11 9 7 6 5 5
0 0 0 0 0 0 0 0 0 1 2 6 14 23 30 30 29 33 37 38 35 30 26 22 17 13 12 12 10 8 8 10 11 11 10 9 9 10 11 10 10 9 8 7
0 0 0 0 0 0 0 0 1 3 6 10 18 24 28 29 31 33 34 34 32 30 28 24 18 13 11 10 9 9 10 12 12 11 9 9 9 11 11 11 12 11 9 8
0 0 0 0 0 0 0 1 2 5 10 14 17 19 19 22 27 28 28 28 26 25 25 24 18 14 10 9 11 13 15 14 13 12 11 11 10 10 10 11 12 11 8 7
0 0 0 0 0 0 0 1 3 7 11 14 15 16 16 17 21 22 23 23 21 19 20 22 20 17 13 11 14 17 17 15 13 12 12 11 9 8 8 8 8 7 6 5
0 0 0 0 0 1 2 4 5 8 11 14 15 18 19 18 18 18 18 18 17 17 18 20 21 19 17 15 15 16 16 13 11 10 9 8 7 6 5 4 4 3 3 2
0 0 0 0 1 3 6 9 9 10 11 14 17 17 16 15 14 14 14 14 16 17 20 21 20 20 18 16 15 13 11 9 8 7 7 6 4 4 3 2 1 1 1 0
0 0 0 0 2 5 8 10 10 10 10 12 13 12 10 9 9 10 11 13 15 17 19 19 18 18 18 15 13 11 9 7 6 6 6 4 3 3 2 1 0 0 0 0
1 2 2 3 4 6 7 8 8 8 7 7 7 7 6 5 6 7 8 11 13 13 14 14 14 14 14 11 9 8 8 6 5 5 5 3 2 1 1 0 0 0 0 0
3 4 6 7 7 6 6 6 6 6 4 3 3 4 4 4 5 5 6 8 9 8 7 7 7 8 8 6 5 6 6 4 3 3 3 1 1 0 0 0 0 0 0 0
4 5 7 8 7 7 6 6 6 5 3 1 1 2 2 3 3 4 4 4 5 4 3 3 3 4 4 3 3 4 3 2 1 1 1 0 0 0 0 0 0 0 0 0
5 6 6 7 6 6 5 5 4 3 1 0 0 1 1 1 1 2 3 3 2 2 2 2 3 3 3 3 3 2 1 1 0 0 0 0 0 0 0 0 0 0 0 0
5 6 6 5 4 4 3 2 1 1 0 0 0 0 0 0 0 1 1 2 2 2 3 3 3 3 3 3 2 1 0 0 0 0 0 0 0 0 0 0 0 0 0 0
3 4 4 2 1 1 1 0 0 0 0 0 0 0 0 0 0 0 0 0 1 2 3 3 2 2 2 1 1 0 0 0 0 0 0 0 0 0 0 0 0 0 0 0
1 1 1 0 0 0 0 0 0 0 0 0 0 0 0 0 0 0 0 0 0 1 2 1 1 1 1 0 0 0 0 0 0 0 0 0 0 0 0 0 0 0 0 0
0 0 0 0 0 0 0 0 0 0 0 0 0 0 0 0 0 0 1 1 1 0 0 0 0 0 0 0 0 0 0 0 0 0 0 0 0 0 0 0 0 0 0 0
0 0 0 0 0 0 0 0 0 0 0 0 0 0 0 0 0 1 2 2 1 0 0 0 0 0 0 0 0 0 0 0 0 0 0 0 0 0 0 0 0 0 0 0
0 0 0 0 0 0 0 0 0 0 0 0 0 0 0 0 0 1 2 2 1 0 0 0 0 0 0 0 0 0 0 0 0 0 0 0 0 0 0 0 0 0 0 0
0 0 0 0 0 0 0 0 0 0 0 0 0 0 0 0 0 1 2 1 0 0 0 0 0 0 0 0 0 0 0 0 0 0 0 0 0 0 0 0 0 0 0 0
0 0 0 0 0 0 0 0 0 0 0 0 0 0 0 0 0 1 1 0 0 0 0 0 0 0 0 0 0 0 0 0 0 0 0 0 0 0 0 0 0 0 0 0
0 0 0 0 0 0 0 0 0 0 0 0 0 0 0 0 0 0 0 0 0 0 0 0 0 0 0 0 0 0 0 0 0 0 0 0 0 0 0 0 0 0 0 0
0 0 0 0 0 0 0 0 0 0 0 0 0 0 0 0 0 0 0 0 0 0 0 0 0 0 0 0 0 0 0 0 0 0 0 0 0 0 0 0 0 0 0 0
0 0 0 0 0 0 0 0 0 0 0 0 0 0 0 0 0 0 0 0 0 0 0 0 0 0 0 0 0 0 0 0 0 0 0 0 0 0 0 0 0 0 0 0
0 0 0 0 0 0 0 0 0 0 0 0 0 0 0 0 0 0 0 0 0 0 0 0 0 0 0 0 0 0 0 0 0 0 0 0 0 0 0 0 0 0 0 0
0 0 0 0 0 0 0 0 0 0 0 0 0 0 0 0 0 0 0 0 0 0 0 0 0 0 0 0 0 0 0 0 0 0 0 0 0 0 0 0 0 0 0 0
0 0 0 0 0 0 0 0 0 0 0 0 0 0 0 0 0 0 0 0 0 0 0 0 0 0 0 0 0 0 0 0 0 0 0 0 0 0 0 0 0 0 0 0

GEFSNGP_con_prob3kmehi_138.txt.gz
EHI
0 0 0 0 0 0 0 0 1 4 7 10 15 24 34 38 40 44 50 59 67 71 68 61 54 50 44 40 37 34 29 25 25 26 25 22 20 19 17 18 18 19 18 17
0 0 0 0 0 0 0 0 1 3 9 14 19 29 41 46 46 49 57 63 69 72 69 63 56 50 46 43 39 33 27 24 23 24 21 19 18 18 20 20 19 18 16 14
0 0 0 0 0 0 0 0 2 6 13 19 27 39 50 55 55 58 65 69 71 72 70 66 57 51 48 45 37 30 25 24 25 23 20 19 18 18 20 21 19 16 14 13
0 0 0 0 0 1 3 3 6 13 20 26 33 43 53 58 60 64 69 69 69 68 67 64 58 52 48 42 33 26 23 24 26 25 23 22 21 19 18 19 18 16 13 13
0 0 0 0 0 2 5 8 11 19 28 31 32 37 46 55 61 62 62 61 60 61 62 62 59 53 47 41 34 27 25 25 25 25 25 23 21 18 15 15 14 12 11 11
0 0 0 0 0 1 5 10 17 26 33 34 33 35 45 55 59 57 54 53 51 54 58 61 58 52 48 43 37 31 29 27 26 25 23 20 16 14 12 10 8 7 7 7
0 0 1 1 2 4 10 18 27 34 38 40 44 47 50 54 55 51 48 46 46 48 52 54 52 48 45 41 35 32 29 26 23 20 17 14 11 10 8 6 5 4 4 4
0 2 6 9 10 15 23 30 35 38 41 45 49 49 46 45 44 40 36 36 37 40 43 44 43 41 38 34 30 27 24 20 17 13 10 8 7 6 5 4 3 3 3 3
7 11 19 21 21 24 28 32 33 34 38 41 40 36 32 31 32 31 26 25 26 30 34 36 34 33 30 27 25 23 19 14 11 9 8 6 5 4 3 3 3 2 2 2
17 20 26 28 26 24 23 24 25 27 29 30 29 26 22 21 23 24 22 20 21 24 27 27 25 23 22 21 20 19 15 10 8 7 6 4 3 2 2 2 1 1 1 1
17 19 23 26 25 21 19 18 20 21 21 23 24 21 17 16 17 16 17 18 20 21 20 18 16 16 16 16 16 14 12 7 5 3 3 1 1 1 1 1 0 0 0 0
9 11 16 20 20 18 17 17 17 16 17 20 22 19 15 13 12 10 11 14 17 17 16 13 13 13 14 13 12 10 8 5 3 1 1 0 0 0 0 0 0 0 0 0
6 7 10 13 13 12 12 13 13 12 14 17 19 17 13 11 8 6 7 10 11 11 11 10 11 11 11 10 9 6 4 3 1 0 0 0 0 0 0 0 0 0 0 0
4 4 5 6 7 6 6 7 7 8 10 13 16 14 10 7 5 3 3 5 5 5 6 6 6 8 8 7 6 4 2 2 1 0 0 0 0 0 0 0 0 0 0 0
2 2 2 2 3 2 2 2 3 5 6 8 10 9 6 5 3 1 1 1 1 2 4 3 3 4 5 4 3 1 1 1 1 0 0 0 0 0 0 0 0 0 0 0
1 1 1 1 1 0 0 0 1 2 2 4 5 5 4 3 2 0 0 0 0 1 4 4 2 1 1 1 1 0 0 1 1 0 0 0 0 0 0 0 0 0 0 0
1 1 1 0 0 0 0 0 0 1 2 3 4 3 2 1 1 0 0 0 0 1 3 4 2 0 0 0 0 0 0 0 0 0 0 0 0 0 0 0 0 0 0 0
1 1 1 1 0 0 0 0 0 1 2 4 3 2 1 0 0 0 0 0 0 1 2 3 1 0 0 0 0 0 0 0 0 0 0 0 0 0 0 0 0 0 0 0
1 2 2 1 1 0 0 0 1 1 2 2 2 1 0 0 0 0 0 0 0 1 2 2 1 0 0 0 0 0 0 0 0 0 0 0 0 0 0 0 0 0 0 0
1 2 2 2 1 0 1 1 2 2 1 1 1 0 0 0 0 0 0 0 0 0 1 1 0 0 0 0 0 0 0 0 0 0 0 0 0 0 0 0 0 0 0 0
0 1 1 1 0 1 1 2 2 1 0 0 0 0 0 0 0 0 0 0 0 0 0 0 0 0 0 0 0 0 0 0 0 0 0 0 0 0 0 0 0 0 0 0
1 1 0 0 0 1 1 1 1 0 0 0 0 0 0 0 0 0 0 0 0 0 0 0 0 0 0 0 0 0 0 0 0 0 0 0 0 0 0 0 0 0 0 0
2 1 0 0 0 0 0 0 0 0 0 0 0 0 0 0 0 0 0 0 0 0 0 0 0 0 0 0 0 0 0 0 0 0 0 0 0 0 0 0 0 0 0 0
2 1 0 0 0 0 0 0 0 0 0 0 0 0 0 0 0 0 0 0 0 0 0 0 0 0 0 0 0 0 0 0 0 0 0 0 0 0 0 0 0 0 0 0
1 0 0 0 0 0 0 0 0 0 0 0 0 0 0 0 0 0 0 0 0 0 0 0 0 0 0 0 0 0 0 0 0 0 0 0 0 0 0 0 0 0 0 0
0 0 0 0 0 0 0 0 0 0 0 0 0 0 0 0 0 0 0 0 0 0 0 0 0 0 0 0 0 0 0 0 0 0 0 0 0 0 0 0 0 0 0 0
0 0 0 0 0 0 0 0 0 0 0 0 0 0 0 0 0 0 0 0 0 0 0 0 0 0 0 0 0 0 0 0 0 0 0 0 0 0 0 0 0 0 0 0

GEFSNGP_con_prob3kmehi_144.txt.gz
EHI
0 0 0 0 0 0 0 0 0 1 2 5 12 16 21 30 36 39 39 36 31 27 25 24 24 22 18 17 18 18 16 11 8 7 4 3 4 6 6 6 6 6 4 3
0 0 0 0 0 1 1 1 1 2 3 6 13 19 25 33 39 42 42 41 37 31 27 27 27 24 20 17 16 16 13 10 8 7 6 5 5 5 6 6 6 6 5 5
0 0 0 0 1 2 3 3 2 3 5 9 16 24 30 35 40 42 43 44 41 34 29 29 28 26 21 17 15 14 11 8 7 6 5 4 4 4 4 4 4 4 5 6
0 0 0 0 1 2 4 4 4 6 10 16 23 29 31 31 33 34 36 39 39 34 30 27 26 23 18 15 14 13 9 6 6 5 4 3 4 4 4 3 4 4 3 3
0 0 0 0 0 1 2 4 7 12 18 22 26 28 25 21 21 22 25 30 34 33 28 24 22 19 15 13 12 11 8 6 6 4 3 3 3 4 3 4 4 4 2 1
0 0 0 1 1 0 1 5 10 18 24 25 24 23 19 15 15 17 20 26 30 30 26 21 17 15 13 11 9 8 7 6 5 4 3 3 3 3 3 3 4 3 1 0
0 0 0 1 1 0 1 4 11 19 23 22 21 21 20 18 18 18 20 25 27 26 21 17 14 12 10 9 7 6 6 5 4 3 3 3 3 3 3 3 3 3 2 1
0 0 0 1 1 0 1 4 9 15 19 20 20 21 21 19 17 16 17 20 22 20 16 14 11 8 7 5 5 6 6 6 4 3 3 3 3 3 3 3 3 3 3 2
1 1 1 1 1 1 2 4 8 12 16 17 18 17 15 13 11 10 11 13 14 13 11 10 8 6 4 4 4 7 8 7 5 4 3 3 3 3 3 3 3 3 3 2
2 2 3 3 3 3 4 6 9 13 14 15 15 12 8 6 5 6 7 9 9 8 7 6 5 4 4 5 6 8 9 7 5 4 3 3 3 3 3 3 3 3 2 1
1 2 3 4 3 3 5 7 10 12 12 11 10 7 5 4 4 4 5 6 7 6 5 4 4 4 5 6 7 9 9 6 4 3 3 3 2 2 2 2 2 1 1 0
0 1 2 3 3 3 4 6 9 9 7 6 5 4 3 3 2 3 2 3 4 5 5 4 5 6 6 6 8 9 7 5 3 3 3 2 1 0 1 1 1 0 0 0
1 2 3 3 4 3 2 3 4 4 3 2 1 1 1 1 1 1 1 1 2 3 4 4 6 6 6 6 6 6 5 4 3 2 1 1 0 0 0 0 0 0 0 0
2 3 4 3 2 1 1 1 1 1 1 1 1 0 0 0 0 0 0 0 1 1 2 3 4 5 5 5 3 2 3 2 1 1 0 0 0 0 0 0 0 0 0 0
3 3 2 1 0 0 0 0 0 0 0 0 0 0 0 0 0 0 0 0 0 0 1 1 1 2 3 3 1 0 1 1 0 0 0 0 0 0 0 0 0 0 0 0
2 1 0 0 0 0 0 0 0 0 0 0 0 0 0 0 0 0 0 0 0 0 0 0 0 0 1 1 0 0 0 0 0 0 0 0 0 0 0 0 0 0 0 0
1 0 0 0 0 0 0 0 0 0 0 0 0 0 0 0 0 0 0 0 0 0 0 0 0 0 0 0 0 0 0 0 0 0 0 0 0 0 0 0 0 0 0 0
0 0 0 0 0 0 0 0 0 0 0 0 0 0 0 0 0 0 0 0 0 0 0 0 0 0 0 0 0 0 0 0 0 0 0 0 0 0 0 0 0 0 0 0
0 0 0 0 0 0 0 0 0 0 0 0 0 0 0 0 0 0 0 0 0 0 0 0 0 0 0 0 0 0 0 0 0 0 0 0 0 0 0 0 0 0 0 0
0 0 0 0 0 0 0 0 0 0 0 0 0 0 0 0 0 0 0 0 0 0 0 0 0 0 0 0 0 0 0 0 0 0 0 0 0 0 0 0 0 0 0 0
0 0 0 0 0 0 0 0 0 0 0 0 0 0 0 0 0 0 0 0 0 0 0 0 0 0 0 0 0 0 0 0 0 0 0 0 0 0 0 0 0 0 0 0
0 0 0 0 0 0 0 0 0 0 0 0 0 0 0 0 0 0 0 0 0 0 0 0 0 0 0 0 0 0 0 0 0 0 0 0 0 0 0 0 0 0 0 0
0 0 0 0 0 0 0 0 0 0 0 0 0 0 0 0 0 0 0 0 0 0 0 0 0 0 0 0 0 0 0 0 0 0 0 0 0 0 0 0 0 0 0 0
0 0 0 0 0 0 0 0 0 0 0 0 0 0 0 0 0 0 0 0 0 0 0 0 0 0 0 0 0 0 0 0 0 0 0 0 0 0 0 0 0 0 0 0
0 0 0 0 0 0 0 0 0 0 0 0 0 0 0 0 0 0 0 0 0 0 0 0 0 0 0 0 0 0 0 0 0 0 0 0 0 0 0 0 0 0 0 0
0 0 0 0 0 0 0 0 0 0 0 0 0 0 0 0 0 0 0 0 0 0 0 0 0 0 0 0 0 0 0 0 0 0 0 0 0 0 0 0 0 0 0 0
0 0 0 0 0 0 0 0 0 0 0 0 0 0 0 0 0 0 0 0 0 0 0 0 0 0 0 0 0 0 0 0 0 0 0 0 0 0 0 0 0 0 0 0

GEFSNGP_con_prob3kmehi_150.txt.gz
EHI
0 0 0 0 0 0 0 0 0 0 0 0 1 1 1 4 11 14 11 11 10 6 4 5 5 4 3 1 0 0 0 0 0 0 0 0 0 0 0 0 0 0 0 0
0 0 0 0 0 0 0 0 0 0 0 0 1 1 1 4 10 13 14 14 12 8 6 5 4 4 4 3 1 0 0 0 0 0 0 0 0 0 0 0 0 0 0 0
0 0 0 0 0 0 0 0 0 0 0 1 2 2 2 4 8 11 14 17 15 10 6 4 4 5 6 5 3 2 1 1 1 1 1 1 0 0 0 0 0 0 0 0
0 0 0 0 0 0 0 0 0 0 0 1 3 5 4 4 6 9 14 17 15 9 5 4 5 6 6 5 4 4 3 2 2 2 2 2 1 0 0 0 0 0 0 0
0 0 0 0 0 0 0 0 0 0 1 2 6 8 6 4 5 8 12 14 11 6 4 6 8 7 5 4 4 4 3 3 3 3 3 3 2 1 0 0 0 0 0 0
0 0 0 0 0 0 0 0 0 0 1 4 7 8 6 4 4 6 8 8 7 6 6 9 10 7 5 3 4 3 3 3 4 3 3 3 3 2 1 0 0 0 0 0
0 0 0 0 0 0 0 0 0 0 1 4 7 6 5 5 5 5 5 4 3 5 7 9 9 7 4 3 3 3 3 4 4 3 3 3 3 2 1 0 0 0 0 0
0 0 0 0 0 0 0 1 0 0 1 3 4 5 5 6 6 6 6 3 2 4 5 6 6 5 4 3 3 3 3 3 3 2 2 2 3 2 1 0 0 0 0 0
0 0 0 0 0 0 1 2 1 0 1 3 4 4 6 7 7 7 6 3 3 5 5 4 4 4 3 3 3 3 3 3 2 1 1 1 1 2 2 1 1 1 2 1
0 0 0 0 0 0 1 1 1 1 3 5 5 5 5 7 7 6 5 5 7 8 6 5 4 3 3 3 3 3 3 3 2 1 0 0 0 1 2 2 2 3 3 3
0 0 0 0 0 0 0 1 2 2 3 4 5 5 6 7 6 5 5 7 8 8 6 4 3 3 3 3 3 3 3 3 2 1 0 1 0 0 1 2 2 2 3 3
0 0 0 0 0 0 0 1 1 1 2 3 4 5 5 4 4 4 5 6 6 5 4 3 3 3 3 3 3 3 3 3 2 1 0 0 0 0 0 1 1 1 1 2
0 0 0 0 0 0 0 0 0 0 1 1 2 3 2 1 2 3 4 4 3 3 2 2 2 2 3 3 3 3 3 3 2 1 0 0 0 0 0 0 0 0 0 1
0 0 0 0 0 0 0 0 0 0 0 0 1 1 0 0 0 1 1 1 1 1 1 1 1 1 2 3 3 3 3 2 1 0 0 0 0 0 0 0 0 0 0 0
0 0 0 0 0 0 0 0 0 0 0 0 0 0 0 0 0 0 0 0 0 0 0 0 0 1 2 3 3 3 3 1 0 0 0 0 0 0 0 0 0 0 0 0
0 0 0 0 0 0 0 0 0 0 0 0 0 0 0 0 0 0 0 0 0 0 0 0 0 1 2 2 2 2 2 1 0 0 0 0 0 0 0 0 0 0 0 0
0 0 0 0 0 0 0 0 0 0 0 0 0 0 0 0 0 0 0 0 0 0 0 0 0 0 1 1 1 1 1 0 0 0 0 0 0 0 0 0 0 0 0 0
0 0 0 0 0 0 0 0 0 0 0 0 0 0 0 0 0 0 0 0 0 0 0 0 0 0 0 0 0 0 0 0 0 0 0 0 0 0 0 0 0 0 0 0
0 0 0 0 0 0 0 0 0 0 0 0 0 0 0 0 0 0 0 0 0 0 0 0 0 0 0 0 0 0 0 0 0 0 0 0 0 0 0 0 0 0 0 0
0 0 0 0 0 0 0 0 0 0 0 0 0 0 0 0 0 0 0 0 0 0 0 0 0 0 0 0 0 0 0 0 0 0 0 0 0 0 0 0 0 0 0 0
0 0 0 0 0 0 0 0 0 0 0 0 0 0 0 0 0 0 0 0 0 0 0 0 0 0 0 0 0 0 0 0 0 0 0 0 0 0 0 0 0 0 0 0
0 0 0 0 0 0 0 0 0 0 0 0 0 0 0 0 0 0 0 0 0 0 0 0 0 0 0 0 0 0 0 0 0 0 0 0 0 0 0 0 0 0 0 0
0 0 0 0 0 0 0 0 0 0 0 0 0 0 0 0 0 0 0 0 0 0 0 0 0 0 0 0 0 0 0 0 0 0 0 0 0 0 0 0 0 0 0 0
0 0 0 0 0 0 0 0 0 0 0 0 0 0 0 0 0 0 0 0 0 0 0 0 0 0 0 0 0 0 0 0 0 0 0 0 0 0 0 0 0 0 0 0
0 0 0 0 0 0 0 0 0 0 0 0 0 0 0 0 0 0 0 0 0 0 0 0 0 0 0 0 0 0 0 0 0 0 0 0 0 0 0 0 0 0 0 0
0 0 0 0 0 0 0 0 0 0 0 0 0 0 0 0 0 0 0 0 0 0 0 0 0 0 0 0 0 0 0 0 0 0 0 0 0 0 0 0 0 0 0 0
0 0 0 0 0 0 0 0 0 0 0 0 0 0 0 0 0 0 0 0 0 0 0 0 0 0 0 0 0 0 0 0 0 0 0 0 0 0 0 0 0 0 0 0

GEFSNGP_con_prob3kmehi_156.txt.gz
EHI
0 0 0 0 0 0 0 0 0 0 1 4 8 10 15 25 36 41 43 44 43 42 42 41 39 33 27 21 18 17 16 16 17 17 15 13 10 5 2 2 2 2 2 2
0 0 0 0 0 0 0 0 0 0 2 7 11 13 18 25 32 36 39 42 45 45 43 42 40 36 32 26 22 21 20 19 18 18 17 14 10 6 4 3 3 2 2 2
0 0 0 0 0 0 0 0 0 2 5 10 15 19 23 27 29 30 34 42 47 47 45 43 41 40 37 32 27 25 24 22 20 19 18 16 11 8 7 5 4 4 3 2
0 0 0 0 0 0 0 0 1 4 8 13 18 24 26 28 28 28 33 40 46 47 47 46 43 41 39 35 30 28 26 24 21 19 19 16 12 10 9 6 4 4 3 3
0 0 0 0 0 1 1 0 1 4 8 14 19 21 24 28 29 28 30 37 43 47 51 51 45 40 37 34 30 27 26 24 21 19 17 14 12 12 10 7 4 3 3 3
0 0 0 0 0 1 1 1 3 6 9 12 16 19 24 30 30 28 29 36 43 48 52 51 46 40 36 33 29 25 23 22 19 16 14 12 11 11 10 7 4 3 3 3
0 0 0 0 1 2 3 4 6 9 12 14 17 23 29 32 31 29 32 37 43 46 45 44 43 39 34 30 25 21 20 19 16 13 12 12 11 11 9 7 4 3 3 3
0 0 2 3 4 6 7 10 11 13 15 19 23 28 29 30 31 30 32 35 37 38 36 35 35 33 28 24 20 17 17 16 14 11 10 11 11 10 8 7 5 4 3 3
2 3 6 8 9 11 13 15 16 14 15 19 23 24 23 24 27 27 28 28 27 28 28 27 27 24 21 18 16 14 13 13 12 10 10 10 10 9 7 6 4 3 3 3
8 8 9 10 11 12 14 16 16 15 14 15 17 17 18 19 22 23 22 21 21 22 21 21 21 19 16 14 12 11 10 10 10 10 10 10 10 9 6 5 4 3 3 3
10 11 11 11 10 10 10 12 14 15 14 14 15 15 16 18 20 20 17 17 19 20 18 17 17 16 13 11 10 9 8 8 9 9 9 9 9 8 5 3 2 2 2 2
8 9 10 10 8 8 8 9 12 15 16 16 16 15 14 16 18 17 14 14 16 18 17 16 15 14 12 10 9 8 7 7 7 7 7 7 7 5 3 1 1 0 0 1
5 4 5 6 5 6 7 8 11 14 16 17 17 16 14 15 15 14 12 12 15 16 16 14 12 11 9 8 8 7 6 6 5 5 5 5 5 4 2 1 0 0 0 0
2 2 2 2 2 4 6 8 10 12 12 14 15 14 13 12 11 10 9 10 12 13 13 11 9 7 6 6 6 5 4 4 4 3 4 5 5 4 3 1 0 0 0 0
0 1 1 0 0 2 5 7 8 8 8 9 10 9 9 8 7 7 6 6 6 7 8 6 5 5 5 5 4 3 3 3 3 3 4 4 3 2 1 1 0 0 0 0
0 0 0 0 1 2 4 4 4 4 4 5 5 5 4 4 4 4 3 2 2 2 3 2 2 3 4 3 3 2 2 2 2 2 3 2 1 1 0 0 0 0 0 0
0 0 0 0 1 2 2 2 1 1 2 2 3 3 3 3 3 2 1 0 0 0 0 0 0 1 1 1 1 1 1 1 1 1 1 1 0 0 0 0 0 0 0 0
0 0 0 0 1 1 1 1 0 0 0 1 1 2 2 2 2 1 0 0 0 0 0 0 0 0 0 0 0 0 0 0 0 0 0 0 0 0 0 0 0 0 0 0
0 0 0 0 0 0 0 0 0 0 0 0 0 1 1 1 1 0 0 0 0 0 0 0 0 0 0 0 0 0 0 0 0 0 0 0 0 0 0 0 0 0 0 0
0 0 0 0 0 0 0 0 0 0 0 0 0 0 0 0 0 0 0 0 0 0 0 0 0 0 0 0 0 0 0 0 0 0 0 0 0 0 0 0 0 0 0 0
0 0 0 0 0 0 0 0 0 0 0 0 0 0 0 0 0 0 0 0 0 0 0 0 0 0 0 0 0 0 0 0 0 0 0 0 0 0 0 0 0 0 0 0
0 0 0 0 0 0 0 0 0 0 0 0 0 0 0 0 0 0 0 0 0 0 0 0 0 0 0 0 0 0 0 0 0 0 0 0 0 0 0 0 0 0 0 0
0 0 0 0 0 0 0 0 0 0 0 0 0 0 0 0 0 0 0 0 0 0 0 0 0 0 0 0 0 0 0 0 0 0 0 0 0 0 0 0 0 0 0 0
0 0 0 0 0 0 0 0 0 0 0 0 0 0 0 0 0 0 0 0 0 0 0 0 0 0 0 0 0 0 0 0 0 0 0 0 0 0 0 0 0 0 0 0
0 0 0 0 0 0 0 0 0 0 0 0 0 0 0 0 0 0 0 0 0 0 0 0 0 0 0 0 0 0 0 0 0 0 0 0 0 0 0 0 0 0 0 0
0 0 0 0 0 0 0 0 0 0 0 0 0 0 0 0 0 0 0 0 0 0 0 0 0 0 0 0 0 0 0 0 0 0 0 0 0 0 0 0 0 0 0 0
0 0 0 0 0 0 0 0 0 0 0 0 0 0 0 0 0 0 0 0 0 0 0 0 0 0 0 0 0 0 0 0 0 0 0 0 0 0 0 0 0 0 0 0

GEFSNGP_con_prob3kmehi_162.txt.gz
EHI
0 0 0 0 0 0 0 0 0 3 9 14 19 23 26 34 43 50 57 65 70 72 69 64 65 65 60 57 55 51 46 40 34 28 25 22 21 22 20 16 16 17 16 13
0 0 0 0 0 0 0 1 1 5 11 18 21 23 25 32 42 49 55 63 68 70 69 65 64 65 63 59 57 52 47 40 32 28 27 23 21 21 21 18 17 17 13 10
0 0 0 0 0 0 1 3 4 8 15 21 24 25 27 33 44 51 54 61 66 68 69 66 64 65 64 62 58 51 46 40 32 29 28 25 21 21 21 19 18 16 13 10
0 0 0 0 0 0 2 6 10 14 20 26 29 31 34 41 51 57 59 63 66 67 67 67 66 66 64 62 58 50 45 40 33 28 27 26 23 21 21 19 17 16 13 11
0 0 0 0 1 1 4 10 17 23 29 33 33 34 39 48 56 61 63 64 66 67 68 68 69 68 64 61 56 48 43 38 32 28 26 25 23 21 20 18 15 14 12 11
0 0 1 2 3 3 7 14 23 30 38 40 38 40 45 50 55 61 63 63 65 69 71 71 69 66 63 60 54 47 42 37 32 28 26 23 21 19 17 15 13 12 10 10
0 1 3 6 6 9 17 25 31 37 43 47 49 52 55 55 57 60 60 59 62 67 71 70 66 62 58 56 52 46 40 36 30 26 22 20 18 17 15 13 12 11 10 9
2 4 10 16 18 23 30 35 37 40 44 49 53 56 57 57 57 57 54 52 55 61 65 65 62 58 52 50 48 43 36 30 25 21 18 16 15 14 14 13 13 11 10 9
8 10 18 25 30 32 33 32 33 37 41 45 48 49 48 49 51 50 48 48 49 53 56 57 55 51 46 43 41 36 28 22 19 17 15 13 12 12 12 12 13 12 11 10
13 13 16 21 26 28 27 25 27 34 38 40 41 40 38 39 43 43 43 45 45 45 46 45 43 41 39 36 34 28 21 17 16 14 13 12 11 11 11 10 10 11 12 12
15 14 13 14 17 21 23 25 29 33 35 35 36 35 31 31 34 37 38 38 39 38 36 33 31 30 30 29 27 23 18 16 15 12 10 10 9 7 7 5 5 8 10 10
18 18 17 16 17 18 22 27 31 33 35 33 32 30 25 24 27 29 31 32 33 33 29 25 23 22 22 21 20 18 16 15 13 10 9 7 6 4 2 1 1 2 3 3
21 21 20 20 18 18 20 25 28 31 32 31 28 25 21 20 23 25 26 27 28 28 24 21 19 17 16 15 15 15 14 12 10 9 8 6 6 5 3 1 0 0 0 0
15 16 18 19 18 18 18 19 20 22 23 23 22 20 19 21 23 24 23 23 23 21 19 16 14 12 11 12 13 12 11 10 9 8 7 7 7 7 5 3 1 0 0 0
7 8 10 13 14 14 14 13 13 13 13 14 15 16 17 22 24 23 22 20 17 16 14 12 9 8 8 11 12 11 9 8 7 7 7 7 7 7 6 4 3 1 0 0
3 4 5 7 7 8 9 9 9 8 7 9 10 10 12 17 20 20 18 16 14 13 12 10 7 6 6 8 10 9 7 5 4 4 5 6 6 5 4 4 4 2 0 0
1 3 4 4 3 4 5 6 5 6 5 5 5 5 6 10 13 13 12 11 12 11 10 8 6 5 4 4 4 4 4 3 2 2 3 3 3 2 3 4 3 1 0 0
0 1 2 3 3 3 4 4 4 5 4 3 2 2 3 5 8 9 8 7 8 9 7 6 5 3 2 1 1 1 1 2 2 2 1 1 1 0 1 2 1 1 0 0
0 0 1 2 3 3 3 3 4 4 3 2 1 1 1 3 6 8 8 7 6 6 6 5 3 2 1 0 0 0 0 1 1 1 1 0 0 0 0 0 1 1 0 0
0 0 2 3 3 2 2 3 4 3 2 1 0 0 0 2 5 8 8 8 6 5 4 3 3 2 1 1 0 0 0 0 0 0 0 0 0 0 0 0 0 0 0 0
0 1 2 3 3 2 3 3 3 2 1 0 0 0 0 2 5 7 7 6 5 4 2 2 2 2 2 1 0 0 0 0 0 0 0 0 0 0 0 0 0 0 0 0
2 3 4 4 4 4 4 3 1 0 0 0 0 1 1 3 5 5 4 3 2 2 1 0 1 1 2 1 0 0 0 0 0 0 0 0 0 0 0 0 0 0 0 0
4 4 5 5 5 4 3 2 0 0 0 0 0 1 2 4 5 3 1 1 1 0 0 0 0 0 0 0 0 0 0 0 0 0 0 0 0 0 0 0 0 0 0 0
4 3 4 3 2 1 1 1 0 0 0 0 0 1 2 3 3 2 0 0 0 0 0 0 0 0 0 0 0 0 0 0 0 0 0 0 0 0 0 0 0 0 0 0
3 3 2 1 0 0 0 0 0 0 0 0 0 0 1 1 1 1 0 0 0 0 0 0 0 0 0 0 0 0 0 0 0 0 0 0 0 0 0 0 0 0 0 0
2 2 1 0 0 0 0 0 0 0 0 0 0 0 0 0 0 0 0 0 0 0 0 0 0 0 0 0 0 0 0 0 0 0 0 0 0 0 0 0 0 0 0 0
1 1 0 0 0 0 0 0 0 0 0 0 0 0 0 0 0 0 0 0 0 0 0 0 0 0 0 0 0 0 0 0 0 0 0 0 0 0 0 0 0 0 0 0

GEFSNGP_con_prob3kmehi_168.txt.gz
EHI
0 0 0 1 1 1 1 1 3 6 10 11 11 16 22 26 30 33 36 40 41 39 37 36 36 35 31 26 21 17 16 12 8 7 7 6 6 6 6 5 4 2 0 0
0 0 0 1 2 2 3 4 7 10 14 14 15 19 26 31 34 38 40 42 42 42 40 39 39 37 32 26 21 19 17 13 9 7 7 6 6 6 6 6 5 3 1 1
0 0 0 1 1 2 5 9 12 15 17 19 20 24 29 35 40 43 44 43 43 43 44 43 42 39 32 25 21 19 16 12 9 7 7 6 6 6 6 6 6 4 4 4
0 0 0 0 0 2 8 15 17 18 20 22 26 29 32 37 41 42 43 42 41 40 43 45 44 40 33 26 22 19 16 11 8 7 7 6 6 6 6 6 6 6 6 6
0 0 0 0 1 4 12 20 23 22 23 25 29 33 35 36 37 38 39 40 39 38 41 43 44 42 35 28 24 21 16 11 9 8 7 7 7 7 7 7 7 7 6 6
0 0 0 2 4 6 12 19 23 24 25 27 29 32 33 33 34 36 37 39 41 39 38 37 38 39 35 29 25 20 14 11 10 8 7 8 8 8 8 8 8 8 7 7
0 0 0 3 6 7 9 13 19 23 25 27 27 27 27 29 32 34 36 38 40 37 32 30 31 34 32 27 23 18 12 9 8 7 7 7 7 7 7 8 9 9 8 8
0 0 2 4 6 6 7 11 17 21 24 27 29 29 28 28 29 30 31 33 33 30 26 24 25 27 26 22 19 15 11 9 7 6 5 6 6 6 7 7 7 8 9 8
3 3 5 6 6 6 8 11 15 18 21 26 30 31 29 26 26 24 23 24 25 25 21 18 20 22 20 16 13 10 8 7 6 5 4 4 5 6 6 6 6 7 7 7
8 8 9 9 8 8 9 11 12 15 20 23 25 25 24 23 21 20 20 21 22 21 17 14 15 17 16 13 9 7 6 6 5 4 3 3 4 5 6 6 5 5 5 5
9 9 9 9 8 9 11 13 15 18 21 21 20 19 19 18 17 18 20 21 20 17 13 11 12 14 14 11 8 7 6 5 4 3 3 3 3 4 5 4 4 4 4 5
6 6 7 9 9 10 13 16 20 22 21 20 19 18 17 16 15 16 18 17 15 12 9 9 11 12 11 9 7 6 6 4 3 3 3 2 2 3 4 3 3 2 3 3
5 5 6 8 9 10 13 17 19 18 17 16 15 15 15 14 13 12 13 12 10 9 9 9 10 10 8 7 6 6 5 4 3 3 2 1 1 2 3 3 2 1 1 2
3 4 6 6 7 8 10 12 12 11 10 10 10 10 10 10 9 7 7 7 7 8 9 10 10 9 7 5 5 4 4 3 3 3 2 1 0 1 2 3 2 1 0 1
2 2 3 3 4 5 6 7 7 6 6 6 6 5 4 4 3 2 2 4 5 6 8 8 8 6 4 3 2 1 1 2 2 2 2 1 0 0 1 2 3 2 1 0
1 1 1 1 1 2 3 4 5 4 4 3 3 3 1 1 1 1 1 1 2 3 5 4 4 2 1 1 0 0 0 1 1 1 1 0 0 0 0 1 3 2 1 0
0 0 0 0 0 1 1 2 3 3 2 2 1 1 0 0 0 1 0 0 0 1 1 1 1 0 0 0 0 0 0 0 0 0 0 0 0 0 0 1 2 2 1 0
0 0 0 0 0 0 0 0 1 1 1 1 0 0 0 0 0 0 0 0 0 0 0 0 0 0 0 0 0 0 0 0 0 0 0 0 0 0 0 0 1 1 0 0
1 1 0 0 0 0 0 0 0 0 0 0 0 0 0 0 0 0 0 0 0 0 0 0 0 0 0 0 0 0 0 0 0 0 0 0 0 0 0 0 0 0 0 0
2 1 0 0 0 0 0 0 0 0 0 0 0 0 0 0 0 0 0 0 0 0 0 0 0 0 0 0 0 0 0 0 0 0 0 0 0 0 0 0 0 0 0 0
1 1 0 0 0 0 0 0 0 0 0 0 0 0 0 0 0 0 0 0 0 0 0 0 0 0 0 0 0 0 0 0 0 0 0 0 0 0 0 0 0 0 0 0
0 0 0 0 0 0 0 0 0 0 0 0 0 0 0 0 0 0 0 0 0 0 0 0 0 0 0 0 0 0 0 0 0 0 0 0 0 0 0 0 0 0 0 0
0 0 0 0 0 0 0 0 0 0 0 0 0 0 0 0 0 0 0 0 0 0 0 0 0 0 0 0 0 0 0 0 0 0 0 0 0 0 0 0 0 0 0 0
0 0 0 0 0 0 0 0 0 0 0 0 0 0 0 0 0 0 0 0 0 0 0 0 0 0 0 0 0 0 0 0 0 0 0 0 0 0 0 0 0 0 0 0
0 0 0 0 0 0 0 0 0 0 0 0 0 0 0 0 0 0 0 0 0 0 0 0 0 0 0 0 0 0 0 0 0 0 0 0 0 0 0 0 0 0 0 0
0 0 0 0 0 0 0 0 0 0 0 0 0 0 0 0 0 0 0 0 0 0 0 0 0 0 0 0 0 0 0 0 0 0 0 0 0 0 0 0 0 0 0 0
0 0 0 0 0 0 0 0 0 0 0 0 0 0 0 0 0 0 0 0 0 0 0 0 0 0 0 0 0 0 0 0 0 0 0 0 0 0 0 0 0 0 0 0

GEFSNGP_con_prob3kmehi_174.txt.gz
EHI
0 0 0 0 1 0 0 0 1 2 4 5 8 9 7 7 10 14 20 22 22 22 22 20 16 14 15 15 13 9 6 4 1 0 0 0 0 0 0 0 1 2 2 1
0 0 0 0 1 0 0 1 2 3 5 6 7 7 6 8 13 18 22 23 22 23 22 20 19 18 18 17 14 11 7 4 2 1 0 0 0 0 0 0 0 1 2 2
0 0 0 0 1 1 1 2 3 3 4 4 5 5 5 8 15 20 21 21 21 23 23 22 22 22 20 18 16 12 8 4 3 2 2 1 1 1 1 2 1 1 2 3
0 0 0 0 0 1 2 2 2 2 2 3 4 5 5 9 15 19 19 19 20 23 24 23 22 21 19 17 14 11 8 4 3 4 4 3 2 2 3 3 3 3 3 3
0 0 0 0 0 1 1 1 1 1 2 4 6 8 10 12 16 19 19 19 21 24 24 23 21 19 17 15 12 10 8 5 4 4 3 2 2 2 3 3 3 3 3 3
0 0 0 0 0 0 0 0 1 2 4 6 8 10 13 17 18 20 20 20 20 21 22 21 18 16 14 12 10 9 7 6 5 4 1 1 1 1 1 2 3 3 3 3
0 0 0 0 0 0 0 0 1 3 5 6 8 10 13 17 19 20 21 20 18 17 17 16 14 12 10 9 9 9 8 7 6 4 1 0 0 0 0 1 2 2 2 2
0 0 0 0 0 0 0 0 1 2 4 6 9 11 12 15 17 18 20 21 18 15 13 11 9 8 7 7 7 8 8 8 6 4 2 1 0 0 0 1 2 2 2 2
0 1 1 1 1 0 0 0 0 1 3 8 11 12 13 14 15 16 19 22 20 16 12 9 7 6 6 4 4 6 6 6 6 4 3 2 1 0 1 2 3 3 2 2
1 2 3 4 4 3 2 2 2 3 5 9 11 11 12 13 13 15 19 22 20 16 10 7 5 5 4 3 2 3 4 5 5 4 3 3 2 1 1 2 3 2 2 2
2 3 4 6 6 5 6 5 5 7 8 10 11 11 11 12 13 14 17 20 18 14 8 5 4 3 3 3 3 3 3 4 4 4 3 3 3 2 2 2 1 1 1 1
1 2 4 6 7 7 7 7 7 8 8 9 10 10 10 10 10 11 13 14 13 9 6 5 4 4 4 3 3 3 3 4 4 4 3 3 3 1 1 1 0 0 0 0
0 2 5 7 7 7 6 6 7 6 6 6 6 6 6 6 6 6 6 6 6 6 5 5 6 5 4 3 3 3 3 4 4 4 3 3 2 1 0 0 0 0 0 0
1 3 6 6 6 5 4 4 4 4 4 4 3 3 2 2 3 2 2 1 2 3 4 5 5 4 3 2 2 3 3 3 3 3 2 1 1 1 0 0 0 0 0 0
3 3 4 4 4 3 3 3 3 3 3 3 2 1 1 0 1 1 0 0 0 1 1 3 3 2 1 1 1 1 2 1 1 1 1 0 0 0 0 0 0 0 0 0
3 3 3 3 3 3 3 3 3 2 1 1 2 1 0 0 0 0 0 0 0 0 0 1 1 0 0 0 0 0 0 1 1 0 0 0 0 0 0 0 0 0 0 0
3 3 3 2 2 2 3 3 3 1 0 1 2 1 0 0 0 0 0 0 0 0 0 0 0 0 0 0 0 0 0 0 0 0 0 0 0 0 0 0 0 0 0 0
1 2 1 1 1 1 1 2 2 1 0 0 1 1 0 0 0 0 0 0 0 0 0 0 0 0 0 0 0 0 0 0 0 0 0 0 0 0 0 0 0 0 0 0
0 0 0 0 0 0 0 1 1 0 0 0 0 0 0 0 0 0 0 0 0 0 0 0 0 0 0 0 0 0 0 0 0 0 0 0 0 0 0 0 0 0 0 0
0 0 0 0 0 0 0 0 0 0 0 0 0 0 0 0 0 0 0 0 0 0 0 0 0 0 0 0 0 0 0 0 0 0 0 0 0 0 0 0 0 0 0 0
0 0 0 0 0 0 0 0 0 0 0 0 0 0 0 0 0 0 0 0 0 0 0 0 0 0 0 0 0 0 0 0 0 0 0 0 0 0 0 0 0 0 0 0
0 0 0 0 0 0 0 0 0 0 0 0 0 0 0 0 0 0 0 0 0 0 0 0 0 0 0 0 0 0 0 0 0 0 0 0 0 0 0 0 0 0 0 0
0 0 0 0 0 0 0 0 0 0 0 0 0 0 0 0 0 0 0 0 0 0 0 0 0 0 0 0 0 0 0 0 0 0 0 0 0 0 0 0 0 0 0 0
0 0 0 0 0 0 0 0 0 0 0 0 0 0 0 0 0 0 0 0 0 0 0 0 0 0 0 0 0 0 0 0 0 0 0 0 0 0 0 0 0 0 0 0
0 0 0 0 0 0 0 0 0 0 0 0 0 0 0 0 0 0 0 0 0 0 0 0 0 0 0 0 0 0 0 0 0 0 0 0 0 0 0 0 0 0 0 0
0 0 0 0 0 0 0 0 0 0 0 0 0 0 0 0 0 0 0 0 0 0 0 0 0 0 0 0 0 0 0 0 0 0 0 0 0 0 0 0 0 0 0 0
0 0 0 0 0 0 0 0 0 0 0 0 0 0 0 0 0 0 0 0 0 0 0 0 0 0 0 0 0 0 0 0 0 0 0 0 0 0 0 0 0 0 0 0

GEFSNGP_con_prob3kmehi_180.txt.gz
EHI
0 0 0 0 0 0 0 0 0 0 2 7 13 21 30 34 33 34 38 43 47 50 50 51 50 47 40 33 31 30 27 25 23 22 18 14 13 14 13 8 3 1 2 3
0 0 0 0 0 0 0 0 0 1 3 7 14 22 29 33 34 35 38 42 45 48 49 50 50 46 40 36 33 32 30 28 26 24 20 17 14 13 12 9 6 4 4 4
0 0 0 1 1 1 0 0 1 3 6 9 16 23 28 32 34 35 38 41 44 45 47 48 45 42 39 37 34 32 30 28 26 24 21 18 15 12 9 9 9 7 6 5
0 0 0 1 1 1 0 1 4 8 10 13 18 22 26 30 34 36 38 41 42 43 45 44 42 39 38 35 31 28 28 26 22 20 19 18 15 11 8 8 8 6 4 3
0 0 0 0 0 0 1 3 6 10 12 13 15 20 27 34 38 39 40 42 43 43 46 46 43 41 38 34 29 27 26 24 20 18 18 20 17 12 10 8 6 4 3 2
0 0 0 0 0 0 1 4 8 12 14 14 15 23 35 42 44 45 44 43 44 45 48 49 47 43 39 35 29 26 24 23 21 20 20 20 17 13 10 9 7 5 4 3
0 0 0 0 1 4 9 15 18 20 22 24 28 37 42 44 47 48 45 42 42 44 48 49 47 43 40 35 28 24 22 22 23 22 20 18 15 12 10 9 7 5 4 3
0 1 2 6 12 21 30 35 34 34 35 37 40 44 42 40 43 44 42 41 41 45 47 46 43 41 38 32 25 20 20 21 22 21 18 15 12 10 8 7 5 3 3 3
4 6 11 20 33 42 47 48 46 44 42 41 42 41 40 38 38 38 38 38 38 41 43 39 36 34 32 27 21 18 17 18 18 17 15 13 11 8 6 4 4 3 3 3
15 17 22 33 45 50 50 50 48 43 38 36 38 40 41 39 35 34 34 31 29 32 33 32 29 27 25 22 19 17 16 16 16 13 11 10 9 6 4 3 3 3 3 3
27 29 33 40 47 48 47 47 44 38 31 30 33 36 39 37 33 31 29 24 21 24 27 27 25 22 21 18 16 16 15 15 15 12 9 7 6 4 3 3 3 2 3 3
31 33 37 42 44 42 39 38 36 34 29 27 28 30 31 31 27 25 23 20 18 20 23 22 19 17 16 15 15 15 14 15 14 12 8 6 4 3 2 2 1 1 1 2
31 31 34 36 33 29 27 26 28 30 29 26 25 24 23 22 20 18 17 15 13 14 15 14 12 12 12 13 13 14 13 12 11 9 7 6 4 3 3 2 1 0 0 1
29 27 25 24 21 18 17 18 20 23 23 20 18 18 17 16 13 11 11 8 7 7 8 7 7 7 8 9 10 10 9 7 7 6 6 6 4 3 3 3 2 1 1 0
22 20 17 13 12 12 13 13 14 14 13 11 11 11 12 10 8 8 7 4 3 3 4 4 4 4 5 6 6 6 4 3 4 5 5 4 3 3 3 3 2 2 1 1
13 12 11 10 9 9 10 10 9 8 7 7 7 7 7 6 6 6 5 3 1 1 3 3 3 2 2 2 3 3 2 1 2 2 2 1 1 1 2 2 1 1 1 0
7 8 10 11 10 8 7 7 6 5 5 5 6 5 3 3 3 3 3 1 0 1 2 2 1 1 1 0 1 2 1 0 0 0 0 0 0 0 1 1 0 0 0 0
4 6 9 10 9 7 5 4 4 3 3 4 4 3 1 1 1 1 1 0 0 0 1 1 0 0 0 0 0 0 0 0 0 0 0 0 0 0 0 0 0 0 0 0
3 4 5 6 6 5 3 2 2 2 2 2 2 1 0 0 0 0 0 0 0 0 0 0 0 0 0 0 0 0 0 0 0 0 0 0 0 0 0 0 0 0 0 0
2 2 2 2 2 1 1 1 1 1 1 1 1 0 0 0 0 0 0 0 0 0 0 0 1 0 0 0 0 0 0 0 0 0 0 0 0 0 0 0 0 0 0 0
1 1 1 0 0 0 0 0 0 0 0 0 0 0 0 0 0 0 0 0 0 0 0 0 0 0 0 0 0 0 0 0 0 0 0 0 0 0 0 0 0 0 0 0
0 0 0 0 0 0 0 0 0 0 0 0 0 0 0 0 0 0 0 0 0 0 0 0 0 0 0 0 0 0 0 0 0 0 0 0 0 0 0 0 0 0 0 0
0 0 0 0 0 0 0 0 0 0 0 0 0 0 0 0 0 0 0 0 0 0 0 0 0 0 0 0 0 0 0 0 0 0 0 0 0 0 0 0 0 0 0 0
0 0 0 0 0 0 0 0 0 0 0 0 0 0 0 0 0 0 0 0 0 0 0 0 0 0 0 0 0 0 0 0 0 0 0 0 0 0 0 0 0 0 0 0
0 0 0 0 0 0 0 0 0 0 0 0 0 0 0 0 0 0 0 0 0 0 0 0 0 0 0 0 0 0 0 0 0 0 0 0 0 0 0 0 0 0 0 0
0 0 0 0 0 0 0 0 0 0 0 0 0 0 0 0 0 0 0 0 0 0 0 0 0 0 0 0 0 0 0 0 0 0 0 0 0 0 0 0 0 0 0 0
0 0 0 0 0 0 0 0 0 0 0 0 0 0 0 0 0 0 0 0 0 0 0 0 0 0 0 0 0 0 0 0 0 0 0 0 0 0 0 0 0 0 0 0

GEFSNGP_con_prob3kmehi_186.txt.gz
EHI
0 0 0 0 0 0 0 0 0 2 10 19 28 38 47 53 54 54 57 61 61 60 63 67 67 63 56 51 50 49 47 45 43 41 39 37 37 37 34 29 25 20 16 13
0 0 0 0 0 0 0 0 0 4 11 20 30 40 47 51 53 53 57 60 59 58 60 62 63 60 55 51 50 49 48 45 44 42 40 39 39 36 32 28 25 22 17 14
0 0 0 0 0 0 0 0 2 8 16 24 35 45 50 52 53 55 59 62 61 58 58 58 58 56 52 50 49 50 50 47 45 44 43 42 41 37 33 28 26 23 19 16
0 0 0 0 0 0 1 2 5 13 22 30 40 49 55 57 59 60 62 64 63 60 58 58 57 54 52 50 49 49 49 47 45 44 43 43 43 41 36 30 26 23 20 17
0 0 0 0 0 1 3 6 10 18 27 33 40 46 53 60 63 64 64 64 62 59 58 58 58 55 53 51 48 46 45 45 45 43 41 42 43 42 37 30 26 23 19 16
0 0 0 0 1 1 5 12 18 26 32 37 42 48 54 61 64 64 62 61 59 56 56 59 59 57 55 50 45 42 41 42 42 41 39 39 39 39 35 30 25 22 18 15
0 0 1 2 3 6 16 29 36 40 44 48 54 60 62 64 64 64 60 58 57 55 56 58 60 58 54 49 44 41 39 38 37 36 34 32 34 35 33 28 24 20 16 13
4 8 14 18 19 25 40 52 54 56 59 63 66 67 66 65 65 64 61 58 56 55 55 57 58 57 53 48 45 42 38 36 33 29 25 25 29 31 29 25 23 19 14 11
18 26 37 43 44 48 57 62 61 61 65 66 66 64 63 63 62 61 59 57 54 51 50 52 53 52 50 47 45 42 39 36 31 25 22 21 24 25 23 20 18 15 11 8
38 43 51 55 56 56 59 60 58 59 61 62 62 61 60 59 58 56 53 51 49 46 44 45 46 46 45 43 42 40 38 35 30 26 22 19 18 16 15 13 11 10 7 6
47 51 54 55 54 55 58 59 58 57 57 57 57 57 56 55 53 49 45 42 41 40 39 39 38 38 38 37 37 34 32 30 29 27 22 16 12 9 7 6 5 5 4 3
48 53 55 53 52 55 59 60 58 56 53 51 52 52 50 48 47 44 39 36 34 33 33 32 31 30 29 29 30 28 26 25 25 23 19 13 8 6 4 3 2 1 1 1
54 53 51 49 49 52 56 55 52 49 47 46 46 44 42 41 39 36 34 31 27 26 27 28 26 23 22 22 24 24 21 18 17 16 14 11 7 5 3 2 0 0 0 0
56 52 47 47 47 47 48 46 43 42 43 42 38 35 33 32 31 29 25 22 20 18 21 23 21 17 15 16 18 16 13 11 11 11 10 8 6 4 3 1 0 0 0 0
48 45 44 45 44 42 41 39 37 37 38 35 29 27 26 25 25 24 20 16 14 15 15 16 14 12 10 11 10 9 7 7 8 8 7 6 4 3 2 1 0 0 0 0
35 35 36 35 33 33 35 34 31 30 30 27 24 23 23 21 21 21 18 15 14 14 12 9 8 8 7 7 6 6 5 4 5 6 4 3 3 2 1 0 0 0 0 0
27 27 26 23 22 24 26 26 24 23 22 21 20 20 19 18 18 18 15 13 13 11 7 4 4 5 5 5 5 4 3 2 2 3 2 2 2 2 1 0 0 0 0 0
18 19 18 17 18 20 21 19 17 17 17 16 16 15 14 13 14 13 10 8 7 5 3 2 1 2 2 2 3 2 1 0 0 1 2 2 2 1 1 0 0 0 0 0
9 11 13 14 16 19 19 15 13 13 13 13 12 11 10 9 8 7 5 4 3 1 0 0 0 0 0 0 1 0 0 0 0 0 1 1 1 0 0 0 0 0 0 0
6 7 8 8 10 13 13 11 10 10 11 11 10 9 7 5 4 3 3 2 1 0 0 0 0 0 0 0 0 0 0 0 1 0 0 0 0 0 0 0 0 0 0 0
8 7 5 3 4 5 6 6 7 8 9 9 7 6 5 4 3 2 1 1 0 0 0 0 0 0 0 0 0 0 0 0 0 0 0 0 0 0 0 0 0 0 0 0
10 8 4 2 3 4 5 5 6 7 8 7 5 5 5 3 2 1 1 1 0 0 0 0 0 0 0 0 0 0 0 0 0 0 0 0 0 0 0 0 0 0 0 0
9 8 5 4 6 8 8 8 7 7 7 5 4 4 4 2 1 0 0 0 0 0 0 0 0 0 0 0 0 0 0 0 0 0 0 0 0 0 0 0 0 0 0 0
7 6 6 6 7 9 8 8 8 7 6 4 4 4 3 1 0 0 0 0 0 0 0 0 0 0 0 0 0 0 0 0 0 0 0 1 1 0 0 0 0 0 0 0
5 4 4 5 6 6 7 6 6 6 5 2 1 1 1 0 0 0 0 0 0 0 0 0 0 0 0 0 0 0 0 0 0 0 0 1 2 1 0 0 0 0 0 0
3 3 3 4 4 5 6 5 4 4 3 1 0 0 0 1 1 1 0 0 0 0 0 0 0 0 0 0 0 0 0 0 0 0 0 1 2 1 0 0 0 0 0 0
3 3 3 3 4 4 4 4 3 2 1 1 1 0 0 1 2 1 0 0 0 0 0 0 0 0 0 0 0 0 0 0 0 0 0 0 1 1 0 0 0 0 0 0

GEFSNGP_con_prob3kmehi_192.txt.gz
EHI
0 0 0 0 0 0 0 1 3 6 12 19 23 25 30 36 41 46 49 48 48 48 46 46 45 42 38 35 32 30 26 22 19 16 13 11 10 9 7 6 5 5 6 6
0 0 0 0 0 0 0 1 4 8 13 17 21 25 30 37 42 45 47 46 47 49 49 49 48 44 40 35 32 29 26 21 17 15 12 8 7 6 6 5 5 5 6 5
0 0 0 0 0 1 2 3 6 11 16 20 24 27 33 39 43 44 45 46 47 49 49 49 49 46 41 34 30 28 25 20 16 14 12 8 6 5 4 4 5 6 6 4
0 0 0 0 0 2 4 7 11 17 22 28 34 36 38 42 44 46 47 46 47 48 47 46 46 45 41 33 27 26 25 21 17 14 13 12 9 6 4 5 4 5 5 4
0 0 0 0 1 3 8 12 16 23 29 37 42 42 39 42 46 49 50 47 46 47 46 44 42 42 39 34 28 26 25 22 16 13 12 12 10 7 5 5 4 4 4 4
0 0 0 2 3 6 11 15 18 25 33 39 41 37 35 40 48 51 51 48 46 46 46 43 39 38 37 34 29 26 24 19 14 11 9 9 8 6 5 5 4 4 4 5
0 0 1 5 7 9 12 16 20 25 33 37 34 32 35 42 48 51 51 49 47 47 45 42 37 35 34 31 27 25 21 17 12 11 10 8 7 6 5 5 5 5 4 5
0 0 2 6 10 12 15 21 24 26 32 37 37 39 43 46 47 48 49 49 47 46 44 40 36 33 31 28 25 23 20 17 15 14 13 11 9 6 4 4 5 5 4 4
4 4 6 11 17 19 21 25 28 29 33 40 43 46 49 48 46 44 45 45 43 42 40 36 32 30 28 26 24 22 19 17 16 16 14 12 9 7 4 3 3 4 3 2
14 14 17 22 27 26 26 30 34 35 37 41 44 46 46 45 42 40 39 38 36 34 33 30 26 25 25 24 22 19 17 14 14 14 12 8 6 5 4 3 4 3 1 0
19 20 25 29 31 30 31 36 41 42 43 43 43 40 39 39 37 35 33 29 27 25 23 22 21 21 20 18 17 15 13 12 12 10 8 4 2 2 2 2 4 3 1 0
19 21 25 28 31 33 36 40 43 45 44 43 40 35 32 33 32 29 26 21 19 18 17 17 18 18 15 13 12 11 11 11 10 8 5 2 0 0 0 1 1 1 0 0
19 22 25 25 29 34 37 38 40 41 40 37 33 29 27 26 25 23 21 18 16 16 15 16 16 14 12 10 9 9 9 9 8 6 3 1 0 0 0 0 0 0 0 0
22 23 24 23 26 31 34 34 34 35 33 29 24 21 21 20 18 17 17 15 13 13 12 12 12 10 9 8 7 8 8 8 7 6 3 1 0 0 0 0 0 0 0 0
22 22 21 20 23 28 31 30 30 29 26 21 17 15 16 15 14 13 12 9 7 7 7 8 8 7 6 6 6 6 6 6 6 6 4 2 1 0 0 0 0 0 0 0
19 19 19 19 21 25 26 26 25 23 19 15 12 12 13 12 9 9 7 3 2 2 3 4 4 4 4 4 4 4 3 3 4 4 4 3 2 1 0 0 0 0 0 0
13 13 14 16 17 18 17 17 16 15 13 11 9 10 10 8 5 4 2 1 0 0 1 1 1 1 1 1 1 1 1 1 1 2 2 3 3 2 0 0 0 0 0 0
5 6 8 10 11 9 7 7 7 7 7 7 8 8 7 4 1 1 0 0 0 0 0 0 0 0 0 0 0 0 0 0 0 0 1 1 2 1 0 0 0 0 0 0
2 3 5 7 7 5 2 1 2 3 4 5 5 5 4 1 0 0 0 0 0 0 0 0 0 0 0 0 0 0 0 0 0 0 0 0 0 0 0 0 0 0 0 0
2 3 4 6 6 4 2 1 1 2 3 3 2 2 1 0 0 0 0 0 0 0 0 0 0 0 0 0 0 0 0 0 0 0 0 0 0 0 0 0 0 0 0 0
2 3 3 4 4 4 3 2 2 3 3 3 1 1 0 0 0 0 0 0 0 0 0 0 0 0 0 0 0 0 0 0 0 0 0 0 0 0 0 0 0 0 0 0
1 1 2 2 1 2 2 2 2 3 3 3 3 2 1 0 0 0 0 0 0 0 0 0 0 0 0 0 0 0 0 0 0 0 0 0 0 0 0 0 0 0 0 0
1 1 1 1 0 1 1 1 2 2 3 3 3 2 1 0 0 0 0 0 0 0 0 0 0 0 0 0 0 0 0 0 0 0 0 0 0 0 0 0 0 0 0 0
1 1 0 0 0 0 0 0 1 1 1 2 2 2 2 1 0 0 0 0 0 0 0 0 0 0 0 0 0 0 0 0 0 0 0 0 0 0 0 0 0 0 0 0
1 0 0 0 0 0 0 0 0 0 0 1 1 2 2 1 0 0 0 0 0 0 0 0 0 0 0 0 0 0 0 0 0 0 0 0 0 0 0 0 0 0 0 0
0 0 0 0 0 0 0 0 0 0 0 0 0 1 1 0 0 0 0 0 0 0 0 0 0 0 0 0 0 0 0 0 0 0 0 0 0 0 0 0 0 0 0 0
0 0 0 0 0 0 0 0 0 0 0 0 0 0 0 0 0 0 0 0 0 0 0 0 0 0 0 0 0 0 0 0 0 0 0 0 0 0 0 0 0 0 0 0

GEFSNGP_con_prob3kmehi_198.txt.gz
EHI
0 0 0 0 0 0 0 0 0 0 1 5 12 16 17 17 19 22 24 22 17 15 14 12 12 16 18 15 11 10 10 9 6 2 1 1 0 1 1 1 1 0 0 0
0 0 0 0 0 0 0 0 0 1 3 7 12 14 15 15 18 21 23 21 18 16 16 15 15 17 19 17 13 11 11 9 6 3 2 2 1 1 1 2 1 0 0 1
0 0 0 0 0 0 0 1 1 1 5 10 14 13 12 12 15 18 19 18 16 16 17 17 17 19 19 17 14 12 12 10 7 5 3 2 2 2 2 1 1 0 1 2
0 0 0 0 0 0 1 2 2 3 8 15 18 15 10 10 12 14 14 13 13 15 16 17 19 20 20 17 14 13 12 12 9 5 3 2 1 1 1 1 0 0 1 2
0 0 0 0 0 1 1 2 4 7 13 20 21 17 10 8 10 11 11 12 14 17 19 20 21 22 20 17 15 13 12 11 9 5 3 3 2 1 0 0 0 0 0 1
0 0 0 0 1 1 0 1 3 10 19 22 19 14 11 11 13 14 13 15 18 20 22 23 24 24 22 18 16 13 11 10 8 5 3 3 3 2 1 0 0 0 0 1
0 0 0 1 2 1 0 1 5 12 19 20 14 10 12 16 19 19 18 19 22 24 24 23 23 24 23 20 17 14 11 10 7 4 3 3 3 3 2 1 0 0 1 2
0 0 0 1 2 1 0 3 8 13 16 16 14 13 16 21 23 21 21 21 24 26 24 22 23 23 22 19 16 13 10 8 5 4 3 4 4 4 3 1 0 0 1 2
1 1 2 2 1 1 2 6 10 14 15 15 17 18 19 21 21 20 19 20 23 24 23 21 22 22 19 15 12 10 8 5 4 3 4 4 5 6 5 2 0 0 1 1
3 5 6 5 3 3 6 9 11 14 15 17 18 18 20 21 19 17 16 16 18 20 20 19 20 18 15 11 9 7 6 4 3 3 4 5 6 6 5 3 1 0 0 0
4 5 8 9 8 7 9 12 14 17 18 19 19 18 19 20 18 16 14 14 14 15 16 16 16 15 12 10 8 6 5 4 3 4 5 5 5 3 2 1 0 0 0 0
3 4 7 10 11 10 11 15 18 21 21 20 18 18 18 19 18 16 15 14 13 13 13 13 14 14 11 9 8 7 6 5 4 3 4 4 2 0 0 0 0 0 0 0
2 4 7 10 12 11 13 17 19 21 20 18 16 16 17 19 19 17 16 15 15 14 12 13 14 13 10 8 7 7 6 4 3 3 3 2 1 0 0 0 0 0 0 0
3 5 7 8 10 12 14 16 18 18 16 15 14 15 17 19 18 17 16 15 15 13 12 12 13 11 9 7 6 6 6 4 3 3 2 1 0 0 0 0 0 0 0 0
3 3 5 6 8 10 12 14 16 16 15 15 15 15 16 16 15 14 13 13 12 12 11 11 11 9 7 6 6 6 5 4 3 2 1 0 0 0 0 0 0 0 0 0
2 2 4 6 7 9 12 15 17 17 16 15 14 13 13 12 11 9 9 9 9 9 9 9 8 6 5 4 4 4 3 3 2 1 0 0 0 0 0 0 0 0 0 0
2 2 4 5 7 9 12 15 16 15 14 12 11 10 9 9 7 5 5 6 7 7 7 7 6 4 3 3 3 2 1 1 1 0 0 0 0 0 0 0 0 0 0 0
3 3 3 3 4 7 9 10 10 10 9 8 7 7 7 5 4 3 3 4 5 5 5 4 3 3 2 2 2 1 0 0 0 0 0 0 0 0 0 0 0 0 0 0
2 2 2 1 1 2 4 4 4 4 4 4 5 6 5 4 3 2 2 3 3 3 2 1 1 1 1 1 1 0 0 0 0 0 0 0 0 0 0 0 0 0 0 0
1 1 1 0 0 0 1 1 1 2 1 1 2 3 4 3 1 1 1 1 1 1 0 0 0 0 0 0 0 0 0 0 0 0 0 0 0 0 0 0 0 0 0 0
0 0 0 0 0 0 0 0 0 0 0 0 0 1 1 1 0 0 0 0 0 0 0 0 0 0 0 0 0 0 0 0 0 0 0 0 0 0 0 0 0 0 0 0
0 0 0 0 0 0 0 0 0 0 0 0 0 0 0 0 0 0 0 0 0 0 0 0 0 0 0 0 0 0 0 0 0 0 0 0 0 0 0 0 0 0 0 0
0 0 0 0 0 0 0 0 0 0 0 0 0 0 0 0 0 0 0 0 0 0 0 0 0 0 0 0 0 0 0 0 0 0 0 0 0 0 0 0 0 0 0 0
0 0 0 0 0 0 0 0 0 0 0 0 0 0 0 1 1 0 0 0 0 0 0 0 0 0 0 0 0 0 0 0 0 0 0 0 0 0 0 0 0 0 0 0
0 0 0 0 0 0 0 0 0 0 0 0 0 0 0 1 1 0 0 0 0 0 0 0 0 0 0 0 0 0 0 0 0 0 0 0 0 0 0 0 0 0 0 0
0 0 0 0 0 0 0 0 0 0 0 0 0 0 0 1 1 0 0 0 0 0 0 0 0 0 0 0 0 0 0 0 0 0 0 0 0 0 0 0 0 0 0 0
0 0 0 0 0 0 0 0 0 0 0 0 0 0 0 0 0 0 0 0 0 0 0 0 0 0 0 0 0 0 0 0 0 0 0 0 0 0 0 0 0 0 0 0

GEFSNGP_con_prob3kmehi_204.txt.gz
EHI
0 0 0 0 0 0 0 0 0 1 4 7 10 18 30 39 42 46 54 57 55 55 56 54 50 47 40 32 28 27 27 27 26 27 24 20 17 16 15 15 16 15 11 9
0 0 0 0 0 0 0 0 1 2 4 6 10 19 31 40 45 50 56 59 57 54 53 52 51 47 41 36 32 30 29 28 27 27 24 21 20 20 18 18 19 16 11 8
0 0 0 0 0 0 0 0 2 4 5 6 11 22 32 40 47 51 54 56 54 51 48 48 48 46 41 37 35 33 32 31 30 28 26 25 25 24 24 23 22 19 12 8
0 0 0 0 0 0 0 0 2 4 5 6 14 25 34 38 43 47 47 48 47 46 44 42 42 43 40 36 34 35 35 33 30 28 26 27 28 27 26 26 24 21 15 12
0 0 0 0 0 0 0 0 1 4 6 9 17 26 33 35 37 40 41 41 41 40 38 37 38 41 40 37 36 37 35 32 29 25 23 25 28 28 26 25 24 21 18 15
0 0 0 0 0 0 0 0 1 3 7 13 18 24 30 33 34 37 40 39 39 39 38 39 41 43 43 41 39 38 35 31 28 26 24 25 27 26 24 23 21 18 16 14
0 0 0 2 3 2 2 3 4 5 9 15 19 24 31 35 37 39 40 39 39 41 43 44 46 47 48 44 39 35 33 31 30 29 27 26 27 25 23 20 18 16 14 13
0 1 3 5 7 7 7 8 10 10 11 16 22 28 32 36 39 41 41 39 40 43 45 46 46 47 46 41 34 31 31 30 30 30 30 27 26 23 20 18 17 16 14 12
1 3 6 9 11 13 14 16 17 17 17 22 29 32 33 35 38 41 42 40 39 40 41 40 39 39 38 33 30 29 28 29 28 28 28 26 23 20 17 16 16 16 14 12
6 8 11 13 15 19 21 21 22 23 25 30 33 34 33 34 36 38 39 37 35 35 35 33 32 31 31 30 29 29 28 28 27 24 22 21 18 15 13 13 13 13 12 12
14 16 18 19 21 24 25 24 25 29 30 31 31 31 31 33 34 35 34 32 31 30 30 28 27 27 27 29 29 29 29 27 23 18 15 15 13 11 11 10 9 9 9 9
19 21 22 24 27 27 26 26 29 33 32 29 27 27 29 30 31 32 30 29 29 28 27 26 25 25 25 26 28 28 27 23 16 12 12 11 10 10 9 7 5 4 5 5
22 21 24 28 29 28 27 29 31 34 34 30 27 26 27 29 30 30 29 28 28 26 26 25 24 22 21 23 25 25 23 18 13 10 10 10 10 10 8 5 2 1 1 1
22 22 25 28 27 26 27 28 30 32 33 31 27 25 26 29 31 30 28 26 24 22 22 22 21 19 18 19 21 21 18 15 11 10 10 10 10 10 9 6 3 1 0 0
21 22 24 25 24 24 25 27 28 29 30 28 24 22 24 29 31 31 28 24 20 18 18 19 19 17 15 16 16 16 15 12 10 10 10 10 10 9 9 7 5 2 1 0
18 20 23 24 23 23 23 24 25 26 26 26 23 21 23 28 30 28 26 22 18 16 17 18 19 17 14 13 13 13 12 11 9 9 9 9 9 8 6 5 4 3 1 0
14 16 20 22 22 21 21 20 20 21 22 22 20 19 21 25 27 25 22 20 18 17 17 17 16 14 12 11 11 11 10 8 7 7 7 6 6 5 4 3 3 3 1 0
11 12 14 16 17 18 19 18 17 17 18 19 17 16 19 23 25 23 20 18 18 17 15 14 12 11 10 10 11 10 9 7 6 5 4 3 3 3 2 2 2 2 1 1
9 9 10 12 14 16 17 16 16 15 15 16 14 14 17 21 22 20 18 16 15 14 13 10 9 9 10 9 9 9 7 5 4 3 2 1 1 1 1 1 1 1 1 0
6 6 7 9 11 13 14 13 13 13 13 12 11 12 15 17 16 15 14 13 12 11 9 8 8 9 9 8 7 7 6 3 1 1 1 0 0 0 0 0 0 0 0 0
4 4 5 7 9 10 11 10 11 12 12 10 10 11 12 11 10 10 10 10 9 8 7 6 7 7 7 5 5 5 4 2 0 0 0 0 0 0 0 0 0 0 0 0
5 5 6 8 10 11 10 10 11 11 11 9 9 9 8 7 6 6 8 7 5 4 4 4 4 3 2 2 3 3 1 1 0 0 0 0 0 0 0 0 0 0 0 0
7 8 9 11 13 14 12 11 10 10 9 8 7 6 4 3 3 3 4 3 2 1 2 2 1 0 0 1 1 1 0 0 0 0 0 0 0 0 0 0 0 0 0 0
9 9 10 12 13 14 13 10 9 9 8 5 4 3 1 1 1 1 1 1 0 0 0 0 0 0 0 0 0 0 0 0 0 0 0 0 0 0 0 0 0 0 0 0
10 10 10 11 10 9 10 8 7 7 5 3 2 1 0 0 0 0 0 1 0 0 0 0 0 0 0 0 0 0 0 0 0 0 0 0 0 0 0 0 0 0 0 0
9 9 9 8 7 7 7 6 6 5 3 3 2 1 1 0 0 0 0 0 0 0 0 0 0 0 0 0 0 0 0 0 0 0 0 0 0 0 0 0 0 0 0 0
7 8 8 8 8 8 7 6 6 4 3 4 3 2 2 1 1 1 0 0 0 0 0 0 0 0 0 0 0 0 0 0 0 0 0 0 0 0 0 0 0 0 0 0

GEFSNGP_con_prob3kmehi_210.txt.gz
EHI
0 0 0 0 0 0 0 1 3 7 11 15 17 20 24 30 34 41 51 63 71 76 76 70 64 62 62 62 62 60 55 51 49 45 39 33 30 29 30 29 28 26 25 24
0 0 0 0 0 0 1 1 3 8 12 16 16 19 25 29 34 40 48 59 69 74 73 69 65 62 61 61 62 59 53 48 46 43 38 34 32 32 32 31 30 28 27 25
0 0 0 0 1 1 2 3 4 8 12 14 16 22 29 34 38 42 48 56 65 68 68 66 64 61 59 58 59 56 52 47 44 42 40 36 34 35 36 35 34 31 29 27
0 0 0 0 1 2 2 3 6 10 10 10 16 27 34 38 41 44 51 57 60 60 61 61 61 58 55 54 54 54 52 48 45 44 42 39 37 37 38 38 36 34 29 26
0 0 0 0 1 1 2 4 10 12 11 11 15 25 34 39 42 46 53 57 56 54 55 57 56 54 52 49 49 50 49 47 46 45 43 41 39 38 38 37 36 32 27 24
0 0 0 0 0 0 3 9 14 17 17 17 19 25 33 38 42 48 54 56 54 51 53 55 54 52 50 46 44 43 43 45 47 46 43 41 39 37 35 34 32 28 24 21
0 0 1 1 2 4 9 15 19 21 23 26 29 35 38 39 43 50 54 54 51 50 51 52 52 53 52 46 40 38 40 43 46 45 41 37 36 35 32 30 28 26 23 20
0 1 5 7 7 9 15 18 19 22 26 31 36 41 42 40 43 47 50 50 49 48 48 49 51 53 51 46 39 36 37 39 40 39 36 33 32 30 28 26 25 24 22 20
2 5 10 13 12 14 17 18 19 22 26 30 36 41 43 43 44 45 45 45 45 46 48 49 51 52 48 43 39 37 34 33 33 33 33 31 28 26 24 23 21 20 20 19
7 9 12 13 13 15 17 19 22 24 25 29 35 41 44 46 46 44 43 42 42 44 47 48 48 46 42 38 37 35 31 28 28 31 31 28 25 23 21 18 16 16 17 17
11 11 11 11 13 15 18 22 25 27 28 31 38 43 44 45 44 43 43 42 42 42 43 45 43 39 35 33 32 31 28 26 26 29 30 26 22 18 15 13 12 13 14 14
12 12 11 12 13 15 19 24 27 30 33 38 44 44 41 39 39 41 42 42 41 41 41 40 39 35 32 31 31 29 27 25 25 25 25 23 19 14 10 8 8 8 9 10
14 13 13 15 17 18 20 25 29 32 36 42 46 43 36 34 36 40 41 40 39 38 37 36 35 34 32 31 31 29 26 24 21 19 19 19 18 14 9 6 4 4 4 5
16 16 17 19 22 22 23 27 31 32 35 40 43 39 33 33 36 39 38 36 35 34 33 33 32 32 32 31 30 28 24 19 16 15 16 18 19 16 11 7 5 3 2 2
16 17 20 22 24 24 26 29 32 34 36 39 39 34 32 34 36 36 34 32 31 30 30 29 28 27 28 29 29 27 21 15 13 13 15 17 17 15 11 9 7 5 2 1
14 17 20 21 23 24 25 28 32 36 38 37 35 32 31 33 34 32 29 29 29 29 27 25 25 24 24 27 28 26 20 13 10 11 13 16 16 13 10 9 7 5 3 3
15 18 19 20 22 23 24 26 30 34 35 33 32 32 31 31 30 28 26 27 28 26 22 21 22 23 23 24 25 23 18 12 9 10 13 16 16 12 9 8 6 5 4 3
16 17 18 20 21 21 22 24 27 31 30 29 28 29 29 27 25 24 24 24 23 20 18 17 19 21 21 20 20 19 17 12 10 10 13 15 13 10 9 9 7 5 4 3
14 14 16 18 20 21 22 24 26 27 25 24 25 26 26 24 23 22 22 19 16 14 14 15 16 16 16 15 15 16 15 11 9 10 11 11 9 7 8 8 7 5 3 2
12 13 14 17 20 22 23 25 25 24 22 21 22 22 22 20 19 19 18 14 12 12 13 13 13 13 13 13 13 13 12 9 7 8 9 9 7 7 7 7 5 3 2 1
11 12 13 16 18 20 22 23 22 21 19 18 19 19 18 17 16 15 14 12 10 11 12 12 13 13 13 13 11 10 9 7 7 7 8 8 6 6 6 5 3 1 1 0
11 12 13 15 16 17 18 18 17 17 17 17 16 16 15 14 13 13 13 11 8 7 8 10 11 11 11 11 10 8 7 6 7 7 7 5 4 4 4 4 2 0 0 0
14 15 16 17 18 18 17 15 15 15 16 16 16 14 12 11 10 10 10 8 5 4 4 6 6 6 6 8 9 8 7 7 7 6 4 3 3 3 4 3 1 0 0 0
18 19 21 20 20 20 18 16 15 15 15 14 14 13 10 7 7 7 6 3 2 2 2 2 2 2 4 6 7 6 7 8 8 6 4 3 3 4 5 5 2 1 1 0
19 20 20 20 19 16 14 14 13 12 10 9 9 9 8 6 6 5 4 2 1 1 1 0 0 1 3 5 5 5 5 7 7 6 4 3 2 3 5 6 5 3 2 1
15 16 17 17 15 11 8 8 8 7 5 5 5 5 5 4 5 5 3 2 1 0 0 1 1 1 2 3 3 4 3 3 4 4 3 2 2 3 3 4 5 4 2 2
12 14 15 15 12 9 5 5 5 5 3 2 2 2 3 4 4 3 2 1 0 0 1 2 2 1 1 1 2 2 2 2 3 2 2 3 4 4 3 3 4 3 2 1

GEFSNGP_con_prob3kmehi_216.txt.gz
EHI
0 0 0 0 1 2 3 4 7 13 17 17 18 20 23 26 28 30 32 32 34 37 38 38 38 39 37 33 27 24 24 24 19 11 7 7 8 8 8 7 6 4 2 1
0 0 0 1 2 4 6 7 10 15 16 16 19 21 23 26 27 26 26 28 33 37 38 38 37 36 36 32 27 23 22 19 15 9 7 7 9 10 9 7 6 5 2 1
0 0 0 1 2 4 7 8 11 14 13 13 17 21 24 26 25 21 20 25 31 35 38 39 39 37 35 32 27 23 19 15 12 9 8 9 11 12 12 9 7 6 4 3
0 0 0 0 1 3 7 9 10 11 11 11 15 20 23 25 24 20 20 25 29 31 34 39 40 38 36 33 28 24 19 16 14 12 11 11 12 14 13 11 9 8 6 5
0 0 0 0 0 4 10 13 13 12 11 12 16 20 21 22 22 22 24 26 26 25 29 35 36 35 35 33 30 26 24 21 19 17 14 13 12 13 13 12 11 10 7 6
0 0 0 0 1 4 9 12 14 13 12 13 16 18 18 18 21 24 24 23 20 21 25 30 32 32 33 33 31 30 29 27 23 20 17 15 13 12 11 10 10 9 8 7
0 0 0 1 2 3 4 7 10 12 13 14 15 15 16 18 21 22 19 16 15 17 21 26 29 32 33 34 33 33 32 29 25 20 16 14 12 11 9 8 8 9 8 6
0 0 1 2 3 2 3 5 7 10 13 15 18 19 19 19 19 17 14 11 11 14 16 21 26 31 33 33 33 33 31 27 23 18 14 12 10 9 7 7 7 8 7 5
2 3 4 4 4 4 6 7 8 10 13 16 20 22 21 18 15 13 11 10 10 12 14 17 22 27 28 27 28 27 25 23 21 19 16 12 9 7 6 6 7 7 6 4
4 6 7 7 6 6 8 10 11 13 15 18 20 21 20 18 14 12 11 11 10 10 11 14 18 20 20 19 20 21 21 21 22 21 19 14 9 7 5 5 5 5 5 4
4 5 7 7 5 6 9 12 15 17 19 20 20 20 20 19 16 13 11 10 9 8 9 11 15 15 13 13 16 18 20 21 22 22 20 15 10 6 4 3 2 3 4 5
3 4 5 4 3 5 9 14 17 19 20 20 20 20 20 20 19 15 11 9 9 9 10 12 13 12 10 10 13 17 20 21 22 21 18 14 9 5 3 2 1 1 2 3
3 4 5 5 6 8 11 14 17 19 20 19 19 20 20 21 20 17 14 12 12 12 13 14 13 11 9 9 11 15 18 20 20 18 14 11 8 6 5 3 2 1 1 1
4 5 6 8 11 13 13 14 15 17 20 20 18 17 18 19 18 18 18 17 15 14 14 13 11 9 8 8 9 11 13 14 14 13 10 8 7 6 6 6 5 3 1 0
4 5 7 9 12 13 13 13 14 16 19 20 17 15 16 17 17 19 19 16 14 13 12 11 9 7 6 7 7 8 8 6 6 8 7 6 6 6 6 6 6 5 3 1
4 4 6 8 10 11 12 13 14 16 19 19 17 14 14 16 17 18 17 12 10 10 10 9 8 7 6 6 5 5 4 2 2 4 4 5 6 6 6 6 6 6 4 3
3 4 6 8 9 11 13 14 15 17 18 17 16 15 14 14 14 14 11 9 7 6 7 8 8 7 6 5 4 4 3 1 1 2 3 4 5 6 6 6 6 6 5 3
3 4 6 8 10 13 14 16 16 17 17 16 16 15 14 12 10 9 7 5 4 4 4 4 4 5 5 6 5 4 4 2 1 2 4 4 4 6 6 6 6 6 4 2
4 5 7 10 13 15 16 16 16 16 16 17 17 15 13 10 8 6 4 2 2 2 2 1 1 2 3 5 5 6 5 3 2 4 5 4 4 6 6 6 6 5 3 2
6 8 10 13 16 16 16 16 15 14 14 15 15 13 10 8 6 4 3 1 0 1 1 0 0 0 1 2 3 5 5 4 5 6 6 4 4 6 6 6 6 4 3 2
10 10 12 14 15 16 16 15 14 12 12 12 11 10 8 6 4 3 2 1 0 0 0 0 0 0 0 1 1 2 3 5 6 7 6 5 5 6 6 6 5 4 3 2
11 11 11 12 13 14 14 13 11 9 9 7 7 6 6 4 3 3 1 0 0 0 0 0 0 0 1 1 1 2 3 5 7 7 6 6 6 6 6 5 4 3 2 1
10 10 10 10 11 11 11 9 8 7 6 5 4 4 4 3 3 2 1 0 0 0 0 0 0 0 1 2 3 4 4 5 6 6 5 5 5 6 5 4 2 1 1 0
9 9 9 10 10 10 9 7 6 6 5 4 3 3 3 3 3 2 1 0 0 0 0 0 0 0 0 2 3 4 4 4 4 4 4 4 4 4 3 2 1 0 0 0
9 9 9 10 10 10 9 7 5 4 4 4 3 3 3 3 3 2 1 0 0 0 0 0 0 0 0 1 1 2 2 2 3 3 3 3 3 3 2 1 0 0 0 0
8 8 9 9 9 9 8 6 5 4 5 5 4 3 3 3 2 1 0 0 0 0 0 0 0 0 0 0 0 0 0 2 3 3 3 3 3 2 1 0 0 0 0 0
7 7 8 8 8 7 6 6 6 5 6 7 6 4 3 2 1 0 0 0 0 0 0 0 0 0 0 0 0 0 0 1 3 3 3 3 3 1 0 0 0 0 0 0

GEFSNGP_con_prob3kmehi_222.txt.gz
EHI
1 1 1 1 1 0 0 1 3 5 7 6 5 4 5 7 9 12 14 16 15 13 12 12 13 14 15 15 12 10 9 7 4 1 0 0 0 0 1 0 1 1 1 1
2 2 2 2 1 0 0 2 5 8 7 5 4 4 4 5 7 9 13 15 15 13 11 12 13 16 17 16 13 11 10 8 6 3 1 0 0 1 1 0 0 1 1 2
2 1 1 2 1 0 1 3 6 8 6 4 4 3 3 4 6 7 10 14 14 12 10 10 13 17 18 17 14 13 12 12 10 7 4 2 1 2 1 0 0 0 1 1
1 0 0 0 0 1 2 3 4 6 7 7 7 6 5 5 6 6 9 12 11 9 7 8 11 16 18 18 15 14 15 16 14 11 8 5 4 2 1 0 0 0 0 0
0 0 0 0 0 1 2 2 2 4 7 8 9 9 8 6 6 7 9 11 8 6 4 5 8 13 17 18 17 15 16 17 16 14 11 9 7 4 2 1 0 0 0 0
0 0 0 0 0 0 1 1 2 5 8 9 8 8 7 6 4 6 10 12 9 5 3 5 8 12 16 19 18 16 15 16 17 16 13 10 10 7 5 3 2 2 1 1
0 0 0 0 0 0 0 1 2 6 8 8 6 5 5 4 2 5 10 12 9 6 6 7 9 12 15 17 16 14 13 16 17 16 12 10 10 10 7 5 5 5 4 3
0 0 0 0 0 0 0 2 3 6 7 7 7 6 5 4 2 3 7 9 8 8 8 9 10 13 14 14 14 13 13 15 17 15 11 9 10 9 6 5 6 6 6 5
0 0 0 0 1 1 2 4 5 5 7 8 7 6 6 5 4 4 6 8 8 7 8 9 10 11 13 13 14 14 13 15 16 14 11 10 9 7 6 5 5 6 6 6
1 1 1 1 1 3 5 6 7 8 9 9 7 5 4 4 3 4 5 7 8 7 7 7 7 8 10 12 13 13 12 11 12 10 10 11 10 8 7 6 6 6 6 6
2 2 1 1 1 3 6 7 8 9 9 7 6 4 2 1 1 2 4 6 7 6 5 5 5 6 8 9 11 10 7 7 7 7 8 11 10 8 5 5 5 5 5 6
1 1 1 0 1 3 5 7 9 9 8 5 4 4 2 1 1 1 4 6 7 5 2 2 3 5 7 7 8 7 5 4 4 5 8 11 11 7 3 2 2 2 3 3
0 0 1 1 1 3 5 7 7 7 5 3 3 3 2 2 2 2 4 7 6 4 1 0 2 5 6 6 6 6 4 3 4 5 7 10 9 6 3 1 1 1 1 1
0 1 2 2 3 5 7 6 6 5 3 2 3 3 3 3 3 3 5 7 6 3 2 2 3 5 5 5 5 5 5 4 4 5 6 7 6 4 2 2 2 2 1 0
2 2 4 5 7 8 8 7 6 4 3 3 3 3 4 4 4 4 6 8 6 4 3 4 5 5 5 5 5 6 5 5 6 5 4 4 3 2 1 2 3 3 2 2
5 5 6 7 8 9 8 7 6 5 4 4 4 4 4 5 5 6 7 7 6 4 3 4 5 5 5 5 6 5 5 5 5 4 3 3 2 1 0 1 2 3 3 4
6 6 6 7 7 7 6 6 6 5 5 5 5 4 4 5 6 6 6 6 5 3 3 3 3 3 3 4 4 3 3 2 2 3 3 3 2 1 0 0 1 1 2 3
6 5 5 5 6 6 6 6 5 4 5 6 6 5 5 6 6 6 6 5 4 2 1 1 1 1 1 1 1 2 1 1 1 1 2 2 1 0 0 0 0 0 1 2
5 4 4 4 4 4 5 5 4 3 4 5 6 6 6 6 6 6 5 4 2 1 0 0 0 0 0 0 0 0 0 0 0 0 1 1 0 0 0 0 0 0 0 1
4 4 3 3 3 3 4 4 3 3 4 5 5 6 6 6 6 5 4 2 1 0 0 0 0 0 0 0 0 0 0 0 0 0 0 0 0 0 0 0 0 0 0 0
4 4 4 4 3 3 4 4 4 5 6 6 5 6 6 6 6 4 2 1 0 0 0 0 0 0 0 0 0 0 0 0 0 0 0 0 0 0 0 1 0 0 0 1
4 5 6 5 4 4 6 7 7 8 9 7 6 6 6 6 4 2 1 0 0 0 0 0 0 0 0 0 0 0 0 0 0 0 0 0 0 0 0 0 0 0 1 2
3 4 5 5 4 6 8 10 10 10 9 7 6 6 5 4 3 1 0 0 0 0 0 0 0 0 0 0 0 0 0 0 0 0 0 0 0 0 0 0 0 1 2 3
1 2 3 4 6 7 8 9 9 9 7 5 4 4 4 3 2 1 0 0 0 0 0 0 0 0 0 0 0 0 0 0 0 0 0 0 0 0 0 0 1 2 3 3
1 1 1 3 6 6 7 7 7 6 5 3 3 3 3 2 1 0 0 0 0 0 0 0 0 0 0 0 0 0 0 0 0 0 0 0 0 0 0 1 2 3 3 3
3 2 2 2 4 4 5 5 6 5 4 3 3 2 1 1 0 0 0 0 0 0 0 0 0 0 0 0 0 0 0 0 0 0 0 0 0 0 0 1 2 2 2 1
3 3 2 2 3 3 3 4 5 5 4 3 2 1 0 0 0 0 0 0 0 0 0 0 0 0 0 0 0 0 0 0 0 0 0 0 0 0 0 1 1 1 1 0

GEFSNGP_con_prob3kmehi_228.txt.gz
EHI
0 0 1 1 1 1 0 0 1 3 8 14 18 18 18 22 27 30 28 26 25 24 24 23 23 25 28 28 24 19 16 15 15 14 11 9 7 7 9 8 8 7 7 7
0 0 1 2 2 2 1 0 1 3 8 15 19 18 20 23 26 28 26 23 23 22 22 21 20 23 27 28 27 23 17 15 15 14 14 11 8 9 10 10 11 10 8 7
0 0 1 2 2 2 1 0 1 4 9 16 20 20 20 19 20 22 22 21 20 20 20 20 19 21 25 29 30 25 18 15 16 17 17 15 13 13 15 16 17 16 12 9
0 0 0 1 1 1 1 0 1 5 11 18 22 23 20 16 15 18 21 21 21 19 19 21 21 22 25 30 30 25 19 17 18 19 20 20 19 19 20 21 21 19 14 11
0 0 0 0 0 1 1 1 3 8 14 20 23 24 22 19 17 21 25 25 22 19 20 23 24 25 27 29 29 25 20 18 19 20 21 22 23 23 22 21 20 17 13 11
0 0 0 1 1 1 1 3 6 11 18 23 22 22 25 24 23 25 28 27 23 21 23 25 26 26 27 27 27 24 20 20 22 23 24 24 25 25 22 19 17 15 12 11
0 0 1 2 2 3 4 8 12 15 22 27 25 26 28 28 26 26 26 26 23 22 24 25 27 29 28 27 26 23 20 21 25 25 24 24 25 25 22 19 16 15 13 12
1 1 3 5 5 6 9 13 16 18 24 30 30 30 30 29 25 23 24 23 21 21 24 27 30 32 31 29 26 22 20 21 24 25 23 23 26 25 23 20 17 15 15 14
4 5 7 8 8 8 11 14 17 20 25 29 29 29 29 27 22 20 22 22 18 18 23 28 32 34 33 30 26 23 21 22 23 23 22 23 26 27 24 21 18 16 15 15
9 8 8 9 8 9 11 14 17 19 23 24 24 24 25 25 23 21 23 22 17 15 19 25 29 30 30 28 26 24 22 21 21 22 21 22 24 25 24 23 21 17 14 13
10 10 10 9 9 9 11 14 16 18 19 19 19 19 22 25 26 25 26 25 20 15 16 20 23 23 24 25 24 22 21 18 18 19 20 21 21 20 20 20 18 14 11 10
10 11 12 12 11 10 12 13 15 16 15 16 17 18 21 25 27 26 27 26 22 18 17 18 18 19 21 22 22 21 20 18 16 18 20 20 18 15 14 13 9 6 6 6
11 12 14 13 12 11 11 11 13 14 15 16 18 18 19 23 25 25 24 23 21 19 19 17 16 18 20 21 21 20 20 17 16 17 18 18 16 15 12 8 4 2 2 2
11 11 12 11 10 10 9 9 11 14 16 17 17 16 16 18 21 21 19 18 17 18 18 16 15 18 19 20 19 17 16 15 15 16 15 14 14 13 10 7 6 4 2 1
10 10 10 10 10 8 7 7 10 13 14 14 14 12 11 13 16 17 16 15 14 14 14 14 14 16 17 18 16 14 13 12 14 14 12 12 12 9 7 7 7 6 4 2
9 9 9 9 10 9 7 7 8 9 11 12 12 10 9 9 12 14 15 14 12 12 11 13 14 14 15 15 15 14 11 10 10 11 10 9 8 5 4 5 6 4 3 3
7 7 8 8 8 8 8 7 7 8 10 11 11 11 11 11 12 14 14 13 13 13 12 12 14 14 13 13 14 13 10 7 6 7 7 5 3 2 3 4 4 2 2 3
5 5 5 6 6 7 7 7 7 9 10 11 12 13 13 13 14 15 15 15 16 16 14 13 13 13 12 11 11 10 8 6 6 5 4 2 1 2 4 5 4 2 2 2
4 4 4 4 5 6 6 7 7 9 10 11 13 14 14 14 15 15 16 17 18 18 17 15 13 12 10 8 7 8 6 5 4 4 3 2 2 3 4 4 2 1 1 2
5 5 5 4 4 4 5 6 7 8 10 11 13 14 14 14 14 15 17 19 20 20 17 15 12 10 7 5 4 5 4 3 3 3 3 3 2 2 2 1 1 0 1 2
7 7 6 5 5 5 5 6 7 8 9 11 12 13 13 13 14 15 17 18 18 17 13 10 9 7 4 2 1 2 3 3 3 3 3 3 2 1 1 0 0 0 1 2
9 8 8 8 8 7 6 6 7 8 10 11 11 12 12 13 15 16 18 18 16 11 9 7 5 3 1 0 0 1 2 3 3 3 2 2 1 0 0 0 0 1 2 3
9 9 9 9 9 9 9 8 8 9 11 12 12 12 13 14 15 17 17 15 11 6 5 5 2 0 0 0 0 1 2 2 2 1 1 1 0 0 0 0 0 1 2 2
10 10 10 10 10 10 11 10 9 10 12 13 13 13 13 14 15 16 14 9 4 2 2 2 1 0 0 0 0 0 1 1 1 0 0 0 0 0 0 0 0 0 1 1
9 10 10 10 9 9 10 10 11 12 13 13 13 13 13 14 15 15 13 8 3 1 0 0 0 0 0 0 0 0 0 0 0 0 0 0 0 0 0 0 0 0 0 0
8 8 9 8 8 8 9 10 11 12 12 12 11 12 13 14 15 14 11 8 4 1 0 0 0 0 0 0 0 0 0 0 0 0 0 0 0 0 0 0 0 0 1 1
7 7 7 7 7 8 9 10 11 11 10 10 10 11 12 13 13 12 10 8 5 2 0 0 0 0 0 0 0 0 0 0 0 0 0 0 0 0 0 0 0 0 1 0

GEFSNGP_con_prob3kmehi_234.txt.gz
EHI
0 0 0 0 0 0 0 1 2 2 5 12 21 28 33 35 38 43 45 47 53 58 59 59 57 53 49 45 47 50 47 42 40 39 36 31 27 23 20 18 17 17 16 14
0 0 0 0 0 1 1 2 2 3 7 14 22 29 33 35 39 45 48 51 56 60 60 58 58 58 54 49 48 48 45 41 39 39 36 31 27 24 23 21 21 21 20 19
0 0 0 0 1 2 3 5 6 7 11 19 26 31 33 36 41 47 53 57 59 60 60 59 59 60 57 51 48 45 42 41 40 39 36 31 28 27 28 27 27 26 24 23
0 0 0 1 2 2 4 7 9 11 15 22 29 33 35 38 44 49 54 57 56 56 56 57 57 56 53 48 43 40 38 39 41 39 36 33 32 32 33 32 30 29 26 25
0 0 0 0 1 2 3 6 9 12 17 23 29 33 37 42 46 48 49 50 50 48 49 52 53 51 46 42 39 37 37 37 38 38 35 34 34 35 37 35 33 31 29 27
0 0 1 1 1 2 4 7 9 13 20 28 31 34 41 45 45 43 44 45 44 43 46 49 50 47 42 38 37 37 37 37 36 34 32 33 34 36 37 35 33 32 30 29
0 1 3 4 3 4 8 12 14 18 26 33 37 40 45 45 42 41 41 41 40 42 46 48 47 45 41 39 37 38 39 39 35 31 30 30 33 36 35 33 32 33 31 29
3 4 7 7 6 9 14 17 17 19 27 34 39 43 44 41 39 39 39 36 35 40 44 45 43 43 44 44 41 39 39 38 34 31 30 30 32 34 33 31 30 31 29 27
12 11 11 9 10 13 17 18 17 17 24 32 36 38 38 37 36 36 35 32 31 34 37 38 36 37 41 46 44 40 36 34 32 31 31 32 32 31 28 26 25 24 24 23
19 15 11 10 11 14 16 16 14 14 20 26 29 32 34 35 35 33 33 33 31 29 30 31 30 30 35 41 42 38 33 29 28 28 29 31 31 27 24 22 21 20 19 19
19 16 12 11 11 13 15 15 13 12 14 19 23 27 30 33 34 32 32 33 32 30 29 30 29 29 32 35 37 36 31 25 24 24 26 26 25 22 20 18 18 17 16 16
17 16 15 14 13 14 14 15 14 13 13 16 20 23 25 27 27 28 30 32 33 33 33 32 30 29 29 31 35 35 30 25 21 21 22 22 21 18 14 12 10 9 10 11
16 16 16 15 15 14 13 12 13 15 17 19 20 19 19 19 21 24 27 30 32 33 34 33 30 27 26 30 35 35 31 26 22 21 21 22 20 18 14 9 6 4 4 4
16 16 15 15 15 13 10 9 11 16 19 20 19 17 15 16 19 23 27 30 31 32 32 30 29 27 26 28 31 33 30 27 24 23 22 22 21 19 17 14 11 8 4 1
16 16 15 15 14 12 9 8 11 16 19 19 18 17 16 17 20 24 28 31 31 30 30 30 30 29 28 26 26 28 28 26 24 23 22 22 20 19 18 16 14 12 9 5
16 15 13 13 13 11 10 10 13 15 17 18 19 18 17 17 20 24 27 30 32 32 33 33 31 29 27 25 24 25 24 21 19 18 19 20 19 18 16 14 11 11 11 9
14 13 11 10 10 9 9 10 12 14 15 17 19 18 15 16 21 24 26 28 31 33 34 33 29 25 24 24 22 21 20 18 15 14 16 17 18 15 12 10 9 8 8 8
9 9 9 8 6 6 6 7 10 12 13 15 18 17 16 18 22 25 26 27 28 30 30 28 24 22 21 20 19 18 18 16 14 14 15 16 15 12 9 8 7 5 4 3
3 4 4 4 4 5 6 6 8 10 12 13 15 17 19 22 24 25 25 24 24 25 25 23 21 20 19 17 16 15 14 12 12 14 15 14 13 10 7 6 5 4 2 1
0 1 1 2 3 5 6 6 7 8 9 11 13 17 21 24 25 24 23 21 21 22 22 21 19 19 18 15 14 13 12 10 10 12 14 12 10 8 7 6 5 4 3 1
2 2 2 3 4 5 5 6 6 6 6 8 11 15 20 23 24 24 23 21 19 19 20 19 18 18 16 13 12 12 12 10 9 9 9 8 6 6 6 6 6 4 2 1
4 4 4 5 5 5 5 6 6 6 6 8 9 11 15 18 20 21 21 19 17 16 17 17 16 14 13 11 10 11 11 9 7 6 5 4 4 4 4 5 4 2 1 1
5 5 4 4 4 4 4 6 7 7 8 8 9 10 12 13 13 15 15 13 11 11 13 14 11 8 8 8 8 8 6 5 5 4 3 3 3 3 3 3 2 1 1 1
5 5 5 4 3 4 4 5 7 8 9 9 9 10 11 10 10 11 10 7 6 8 9 9 5 2 3 6 6 5 4 3 3 3 3 3 3 3 2 1 0 0 0 0
7 6 6 5 5 6 6 6 7 8 8 8 8 9 11 11 11 12 11 6 5 6 7 5 2 1 3 5 5 4 4 3 3 2 2 3 2 1 1 0 0 0 0 0
7 7 7 8 7 7 6 6 6 7 8 8 8 8 10 12 13 14 12 8 7 8 8 6 4 3 5 6 5 4 3 2 1 1 1 1 1 1 0 0 0 0 0 0
7 7 8 9 8 6 5 5 6 8 9 8 7 8 10 12 13 14 12 9 10 11 11 10 8 6 7 7 5 4 3 1 0 0 0 0 1 0 0 0 0 0 0 0

GEFSNGP_con_prob3kmehi_240.txt.gz
EHI
0 0 1 3 4 3 2 2 2 3 5 7 12 17 22 26 31 36 38 36 33 29 25 26 29 28 25 23 22 23 24 25 24 22 19 15 10 6 4 3 3 4 4 4
0 0 2 3 4 4 4 4 2 2 4 8 12 17 21 27 33 35 35 34 33 30 26 25 27 25 22 20 21 23 24 24 23 22 19 15 12 9 7 7 6 6 5 4
0 0 1 3 5 5 5 5 4 4 7 11 15 18 20 25 32 33 31 33 35 33 29 27 25 22 18 18 20 23 24 24 23 22 19 16 15 13 10 9 9 8 6 4
0 0 0 2 4 5 6 6 7 7 11 16 20 22 22 26 30 31 30 32 35 34 32 30 26 20 18 18 20 22 23 24 25 23 20 18 17 15 13 12 10 9 6 5
0 0 0 0 1 3 5 8 10 12 15 20 24 26 25 26 28 27 28 29 30 31 32 31 27 22 20 19 21 23 23 25 26 24 21 20 20 18 16 15 13 10 8 6
0 0 0 1 1 1 4 7 10 14 18 21 25 25 23 22 21 22 24 26 26 27 30 28 25 24 22 21 23 24 24 24 24 22 21 21 21 20 19 18 16 13 9 7
0 0 1 2 2 2 2 5 9 13 17 19 21 21 19 17 17 17 20 22 23 24 25 23 21 21 21 20 20 21 21 20 18 16 17 18 19 19 20 20 19 16 11 8
0 1 2 3 3 3 3 5 9 12 15 17 18 19 19 17 15 14 15 17 20 21 20 17 16 16 16 15 14 15 16 14 11 11 13 14 15 17 20 22 21 18 13 10
2 3 4 5 6 6 6 9 11 13 15 17 18 19 19 16 13 11 10 13 16 17 16 13 12 12 10 8 9 11 11 9 7 8 9 10 12 14 18 20 19 17 14 12
4 5 6 8 10 10 10 11 13 14 15 17 18 19 18 15 10 8 9 12 13 14 12 10 9 9 7 5 6 9 9 7 6 6 6 7 9 11 13 16 17 16 14 13
3 4 6 9 11 12 12 12 14 16 17 18 18 18 15 12 9 9 11 12 11 11 10 8 7 7 7 6 7 8 8 7 6 6 5 6 7 8 9 11 13 13 11 11
2 3 5 8 10 11 10 11 13 17 19 20 18 16 13 12 11 11 12 11 8 8 8 8 7 8 8 8 8 8 7 7 6 6 5 5 6 5 6 7 7 7 6 6
3 4 6 7 9 9 8 8 11 15 20 21 18 15 14 14 14 13 12 10 7 6 7 8 8 9 9 9 9 9 7 7 6 5 5 5 5 5 5 4 3 2 1 1
4 5 7 8 7 7 7 8 10 14 18 19 17 15 14 14 14 14 12 10 8 7 6 7 8 8 9 10 10 10 9 8 7 6 5 4 4 4 5 5 3 1 1 0
4 6 7 7 6 6 8 9 11 14 17 17 16 14 13 13 13 12 11 11 11 11 8 6 7 7 8 10 11 11 10 9 9 8 7 5 4 4 5 5 4 3 3 2
5 6 7 7 6 6 8 10 12 13 14 13 12 12 12 12 11 11 10 11 12 12 10 7 7 7 7 10 11 11 10 10 10 9 8 7 6 5 5 5 5 5 4 3
4 5 6 6 6 6 7 9 10 9 9 8 8 10 12 12 12 11 10 10 11 11 10 8 8 8 8 10 12 11 10 10 10 9 9 8 6 5 4 4 4 4 3 3
3 3 4 4 3 4 5 6 6 5 5 5 6 8 11 13 12 11 10 10 11 10 9 8 8 9 9 11 13 12 10 9 9 8 8 6 5 4 3 3 3 2 1 1
3 3 2 2 1 1 2 3 3 3 4 5 5 8 11 12 11 10 10 11 11 11 9 9 8 8 8 10 13 14 11 9 8 7 7 6 4 3 3 3 3 1 0 0
2 1 1 1 0 0 0 1 2 3 5 6 6 7 9 9 8 8 9 10 11 12 11 10 9 8 8 11 14 15 13 9 7 6 6 5 4 3 3 3 2 1 0 0
1 0 0 0 0 0 0 1 2 3 4 5 6 6 7 7 6 6 7 8 9 10 11 11 10 9 11 12 14 14 13 11 8 6 5 4 3 3 3 3 1 0 0 0
0 0 0 0 0 0 1 2 3 3 3 4 4 4 4 4 5 5 5 6 7 8 10 10 10 10 11 11 12 13 12 10 7 5 3 3 3 3 4 3 1 0 0 0
0 0 1 1 1 1 2 3 3 3 3 3 3 3 3 3 4 4 5 6 6 7 8 8 8 8 8 8 9 10 10 8 5 3 1 1 2 3 3 2 1 0 0 0
0 1 2 2 2 3 3 3 3 3 3 3 3 2 2 2 2 2 4 6 5 5 5 5 4 3 4 5 7 7 7 6 4 2 0 0 1 1 1 1 0 0 0 0
1 2 3 3 3 3 3 3 3 2 2 2 1 1 1 1 0 1 3 4 3 3 2 2 1 1 2 4 6 6 6 5 3 2 0 0 0 0 0 0 0 0 0 0
2 3 3 3 2 2 2 2 1 1 1 1 0 0 0 0 0 1 2 2 1 1 1 1 0 0 1 3 4 5 4 3 1 1 0 0 0 0 0 0 0 0 0 0
3 3 3 2 1 1 1 1 0 0 0 0 0 0 0 0 0 1 1 0 0 0 0 0 0 0 1 2 3 2 2 1 0 0 0 0 0 0 0 0 0 0 0 0